Observation data for Amarillo 9 North Northeast on 12/07/2018      Previous  Date       Current Mesonet Observations  Soil Data  Daily Summary Page  Observations in Plain Language
KAM2 070600Z 05005KT M01/M06 A3031 RMK A01 T10051059  RH  067%=      5-min Rain = 0
KAM2 070601Z 05006KT M01/M06 A3031 RMK A01 T10051058  RH  067%=      5-min Rain = 0
KAM2 070602Z 05007KT M01/M06 A3031 RMK A01 T10051058  RH  067%=      5-min Rain = 0
KAM2 070603Z 06006KT M01/M06 A3031 RMK A01 T10051059  RH  067%=      5-min Rain = 0
KAM2 070604Z 06007KT M01/M06 A3031 RMK A01 T10051059  RH  067%=      5-min Rain = 0
KAM2 070605Z 06007KT M01/M06 A3031 RMK A01 T10051059  RH  067%=      5-min Rain = 0
KAM2 070606Z 05007KT M01/M06 A303 RMK A01 T10051059  RH  067%=      5-min Rain = 0
KAM2 070607Z 05006KT M01/M06 A303 RMK A01 T10061060  RH  067%=      5-min Rain = 0
KAM2 070608Z 05005KT M01/M06 A303 RMK A01 T10061060  RH  067%=      5-min Rain = 0
KAM2 070609Z 05005KT M01/M06 A303 RMK A01 T10061059  RH  067%=      5-min Rain = 0
KAM2 070610Z 05006KT M01/M06 A303 RMK A01 T10061059  RH  067%=      5-min Rain = 0
KAM2 070611Z 05005KT M01/M06 A303 RMK A01 T10061059  RH  067%=      5-min Rain = 0
KAM2 070612Z 06005KT M01/M06 A303 RMK A01 T10061059  RH  068%=      5-min Rain = 0
KAM2 070613Z 05006KT M01/M06 A303 RMK A01 T10061059  RH  068%=      5-min Rain = 0
KAM2 070614Z 05006KT M01/M06 A303 RMK A01 T10061059  RH  068%=      5-min Rain = 0
KAM2 070615Z 05004KT M01/M06 A303 RMK A01 T10061058  RH  068%=      5-min Rain = 0
KAM2 070616Z 05005KT M01/M06 A303 RMK A01 T10061058  RH  068%=      5-min Rain = 0
KAM2 070617Z 06005KT M01/M06 A303 RMK A01 T10061058  RH  068%=      5-min Rain = 0
KAM2 070618Z 06005KT M01/M06 A303 RMK A01 T10061059  RH  068%=      5-min Rain = 0
KAM2 070619Z 05004KT M01/M06 A303 RMK A01 T10071059  RH  068%=      5-min Rain = 0
KAM2 070620Z 05004KT M01/M06 A303 RMK A01 T10061058  RH  068%=      5-min Rain = 0
KAM2 070621Z 06005KT M01/M06 A303 RMK A01 T10061058  RH  068%=      5-min Rain = 0
KAM2 070622Z 07005KT M01/M06 A303 RMK A01 T10071058  RH  068%=      5-min Rain = 0
KAM2 070623Z 07005KT M01/M06 A303 RMK A01 T10071059  RH  068%=      5-min Rain = 0
KAM2 070624Z 07005KT M01/M06 A303 RMK A01 T10061059  RH  068%=      5-min Rain = 0
KAM2 070625Z 07004KT M01/M06 A303 RMK A01 T10071059  RH  068%=      5-min Rain = 0
KAM2 070626Z 07004KT M01/M06 A303 RMK A01 T10071058  RH  068%=      5-min Rain = 0
KAM2 070627Z 08004KT M01/M06 A303 RMK A01 T10071058  RH  068%=      5-min Rain = 0
KAM2 070628Z 08004KT M01/M06 A303 RMK A01 T10071058  RH  068%=      5-min Rain = 0
KAM2 070629Z 08004KT M01/M06 A303 RMK A01 T10071058  RH  068%=      5-min Rain = 0
KAM2 070630Z 08005KT M01/M06 A303 RMK A01 T10071058  RH  068%=      5-min Rain = 0
KAM2 070631Z 08005KT M01/M06 A303 RMK A01 T10061058  RH  068%=      5-min Rain = 0
KAM2 070632Z 08004KT M01/M06 A303 RMK A01 T10071058  RH  068%=      5-min Rain = 0
KAM2 070633Z 08004KT M01/M06 A303 RMK A01 T10071058  RH  068%=      5-min Rain = 0
KAM2 070634Z 09004KT M01/M06 A303 RMK A01 T10071058  RH  068%=      5-min Rain = 0
KAM2 070635Z 10003KT M01/M06 A303 RMK A01 T10071058  RH  068%=      5-min Rain = 0
KAM2 070636Z 08005KT M01/M06 A3031 RMK A01 T10071057  RH  069%=      5-min Rain = 0
KAM2 070637Z 08004KT M01/M06 A3031 RMK A01 T10071058  RH  068%=      5-min Rain = 0
KAM2 070638Z 08004KT M01/M06 A303 RMK A01 T10071059  RH  068%=      5-min Rain = 0
KAM2 070639Z 08004KT M01/M06 A303 RMK A01 T10071059  RH  068%=      5-min Rain = 0
KAM2 070640Z 09004KT M01/M06 A303 RMK A01 T10071058  RH  068%=      5-min Rain = 0
KAM2 070641Z 09004KT M01/M06 A303 RMK A01 T10071058  RH  068%=      5-min Rain = 0
KAM2 070642Z 10005KT M01/M06 A303 RMK A01 T10071058  RH  068%=      5-min Rain = 0
KAM2 070643Z 10004KT M01/M06 A303 RMK A01 T10081058  RH  069%=      5-min Rain = 0
KAM2 070644Z 09004KT M01/M06 A303 RMK A01 T10081058  RH  069%=      5-min Rain = 0
KAM2 070645Z 08004KT M01/M06 A303 RMK A01 T10081058  RH  069%=      5-min Rain = 0
KAM2 070646Z 08003KT M01/M06 A303 RMK A01 T10071058  RH  069%=      5-min Rain = 0
KAM2 070647Z 08004KT M01/M06 A303 RMK A01 T10081058  RH  068%=      5-min Rain = 0
KAM2 070648Z 08004KT M01/M06 A303 RMK A01 T10081059  RH  068%=      5-min Rain = 0
KAM2 070649Z 08003KT M01/M06 A303 RMK A01 T10081059  RH  068%=      5-min Rain = 0
KAM2 070650Z 08003KT M01/M06 A303 RMK A01 T10081059  RH  069%=      5-min Rain = 0
KAM2 070651Z 08003KT M01/M06 A303 RMK A01 T10081058  RH  069%=      5-min Rain = 0
KAM2 070652Z 08003KT M01/M06 A303 RMK A01 T10081058  RH  069%=      5-min Rain = 0
KAM2 070653Z 08002KT M01/M06 A303 RMK A01 T10081058  RH  069%=      5-min Rain = 0
KAM2 070654Z 08003KT M01/M06 A303 RMK A01 T10091058  RH  069%=      5-min Rain = 0
KAM2 070655Z 08002KT M01/M06 A303 RMK A01 T10091057  RH  069%=      5-min Rain = 0
KAM2 070656Z 07002KT M01/M06 A303 RMK A01 T10091057  RH  070%=      5-min Rain = 0
KAM2 070657Z 08003KT M01/M06 A303 RMK A01 T10091057  RH  070%=      5-min Rain = 0
KAM2 070658Z 08002KT M01/M06 A303 RMK A01 T10091057  RH  070%=      5-min Rain = 0
KAM2 070659Z 08002KT M01/M06 A303 RMK A01 T10091057  RH  070%=      5-min Rain = 0
KAM2 070700Z 08002KT M01/M06 A303 RMK A01 T10091057  RH  070%=      5-min Rain = 0
KAM2 070701Z 09002KT M01/M06 A303 RMK A01 T10091057  RH  070%=      5-min Rain = 0
KAM2 070702Z 07002KT M01/M06 A303 RMK A01 T10091057  RH  070%=      5-min Rain = 0
KAM2 070703Z 07002KT M01/M06 A303 RMK A01 T10091057  RH  070%=      5-min Rain = 0
KAM2 070704Z 08002KT M01/M06 A303 RMK A01 T10081056  RH  070%=      5-min Rain = 0
KAM2 070705Z 06001KT M01/M06 A303 RMK A01 T10091056  RH  070%=      5-min Rain = 0
KAM2 070706Z 06002KT M01/M06 A303 RMK A01 T10091056  RH  070%=      5-min Rain = 0
KAM2 070707Z 07002KT M01/M06 A303 RMK A01 T10091056  RH  070%=      5-min Rain = 0
KAM2 070708Z 07002KT M01/M06 A303 RMK A01 T10091057  RH  070%=      5-min Rain = 0
KAM2 070709Z 07002KT M01/M06 A303 RMK A01 T10091057  RH  070%=      5-min Rain = 0
KAM2 070710Z 07002KT M01/M06 A303 RMK A01 T10091058  RH  070%=      5-min Rain = 0
KAM2 070711Z 07002KT M01/M06 A303 RMK A01 T10091058  RH  069%=      5-min Rain = 0
KAM2 070712Z 07002KT M01/M06 A303 RMK A01 T10091058  RH  070%=      5-min Rain = 0
KAM2 070713Z 07002KT M01/M06 A303 RMK A01 T10091057  RH  070%=      5-min Rain = 0
KAM2 070714Z 08002KT M01/M06 A303 RMK A01 T10091057  RH  070%=      5-min Rain = 0
KAM2 070715Z 08003KT M01/M06 A303 RMK A01 T10091057  RH  070%=      5-min Rain = 0
KAM2 070716Z 07002KT M01/M06 A303 RMK A01 T10091057  RH  070%=      5-min Rain = 0
KAM2 070717Z 08003KT M01/M06 A303 RMK A01 T10091057  RH  070%=      5-min Rain = 0
KAM2 070718Z 08002KT M01/M06 A303 RMK A01 T10091057  RH  070%=      5-min Rain = 0
KAM2 070719Z 08003KT M01/M06 A303 RMK A01 T10091057  RH  070%=      5-min Rain = 0
KAM2 070720Z 09003KT M01/M06 A303 RMK A01 T10091057  RH  070%=      5-min Rain = 0
KAM2 070721Z 07002KT M01/M06 A303 RMK A01 T10091057  RH  069%=      5-min Rain = 0
KAM2 070722Z 07001KT M01/M06 A303 RMK A01 T10081057  RH  070%=      5-min Rain = 0
KAM2 070723Z 07002KT M01/M06 A3031 RMK A01 T10091057  RH  070%=      5-min Rain = 0
KAM2 070724Z 06003KT M01/M06 A3031 RMK A01 T10081057  RH  070%=      5-min Rain = 0
KAM2 070725Z 06003KT M01/M06 A3031 RMK A01 T10081057  RH  070%=      5-min Rain = 0
KAM2 070726Z 07004KT M01/M06 A3031 RMK A01 T10081057  RH  069%=      5-min Rain = 0
KAM2 070727Z 07004KT M01/M06 A3031 RMK A01 T10081057  RH  069%=      5-min Rain = 0
KAM2 070728Z 07003KT M01/M06 A303 RMK A01 T10081057  RH  069%=      5-min Rain = 0
KAM2 070729Z 07003KT M01/M06 A303 RMK A01 T10081057  RH  069%=      5-min Rain = 0
KAM2 070730Z 07003KT M01/M06 A303 RMK A01 T10081057  RH  070%=      5-min Rain = 0
KAM2 070731Z 07003KT M01/M06 A303 RMK A01 T10081056  RH  070%=      5-min Rain = 0
KAM2 070732Z 07003KT M01/M06 A303 RMK A01 T10081056  RH  070%=      5-min Rain = 0
KAM2 070733Z 06003KT M01/M06 A303 RMK A01 T10081056  RH  070%=      5-min Rain = 0
KAM2 070734Z 05003KT M01/M06 A303 RMK A01 T10081056  RH  070%=      5-min Rain = 0
KAM2 070735Z 05004KT M01/M06 A303 RMK A01 T10081056  RH  070%=      5-min Rain = 0
KAM2 070736Z 05004KT M01/M06 A3029 RMK A01 T10091057  RH  070%=      5-min Rain = 0
KAM2 070737Z 05003KT M01/M06 A3029 RMK A01 T10081056  RH  070%=      5-min Rain = 0
KAM2 070738Z 05004KT M01/M06 A3029 RMK A01 T10091057  RH  070%=      5-min Rain = 0
KAM2 070739Z 05004KT M01/M06 A3029 RMK A01 T10091057  RH  070%=      5-min Rain = 0
KAM2 070740Z 05003KT M01/M06 A3029 RMK A01 T10091057  RH  070%=      5-min Rain = 0
KAM2 070741Z 06003KT M01/M06 A3029 RMK A01 T10101057  RH  070%=      5-min Rain = 0
KAM2 070742Z 05003KT M01/M06 A3029 RMK A01 T10101058  RH  070%=      5-min Rain = 0
KAM2 070743Z 05003KT M01/M06 A3029 RMK A01 T10101058  RH  070%=      5-min Rain = 0
KAM2 070744Z 05002KT M01/M06 A3029 RMK A01 T10111058  RH  070%=      5-min Rain = 0
KAM2 070745Z 05002KT M01/M06 A3029 RMK A01 T10111058  RH  070%=      5-min Rain = 0
KAM2 070746Z 06002KT M01/M06 A3029 RMK A01 T10111058  RH  071%=      5-min Rain = 0
KAM2 070747Z 06003KT M01/M06 A3029 RMK A01 T10121058  RH  071%=      5-min Rain = 0
KAM2 070748Z 05003KT M01/M06 A3029 RMK A01 T10121058  RH  071%=      5-min Rain = 0
KAM2 070749Z 05002KT M01/M06 A3029 RMK A01 T10131059  RH  071%=      5-min Rain = 0
KAM2 070750Z 05002KT M01/M06 A3029 RMK A01 T10131059  RH  071%=      5-min Rain = 0
KAM2 070751Z 05001KT M01/M06 A3029 RMK A01 T10131058  RH  071%=      5-min Rain = 0
KAM2 070752Z 04001KT M01/M06 A3029 RMK A01 T10131058  RH  072%=      5-min Rain = 0
KAM2 070753Z 02001KT M01/M06 A3029 RMK A01 T10131058  RH  072%=      5-min Rain = 0
KAM2 070754Z 00000KT M01/M06 A3029 RMK A01 T10131057  RH  072%=      5-min Rain = 0
KAM2 070755Z 05000KT M01/M06 A3029 RMK A01 T10141058  RH  072%=      5-min Rain = 0
KAM2 070756Z 06001KT M02/M06 A3029 RMK A01 T10151059  RH  072%=      5-min Rain = 0
KAM2 070757Z 08001KT M02/M06 A3029 RMK A01 T10161059  RH  072%=      5-min Rain = 0
KAM2 070758Z 09001KT M02/M06 A3029 RMK A01 T10161060  RH  072%=      5-min Rain = 0
KAM2 070759Z 09001KT M02/M06 A3029 RMK A01 T10171060  RH  072%=      5-min Rain = 0
KAM2 070800Z 10001KT M02/M06 A3029 RMK A01 T10171059  RH  073%=      5-min Rain = 0
KAM2 070801Z 13000KT M02/M06 A303 RMK A01 T10181059  RH  073%=      5-min Rain = 0
KAM2 070802Z 14001KT M02/M06 A303 RMK A01 T10181058  RH  074%=      5-min Rain = 0
KAM2 070803Z 18001KT M02/M06 A303 RMK A01 T10181057  RH  075%=      5-min Rain = 0
KAM2 070804Z 17001KT M02/M06 A303 RMK A01 T10181057  RH  075%=      5-min Rain = 0
KAM2 070805Z 12002KT M02/M06 A303 RMK A01 T10181057  RH  074%=      5-min Rain = 0
KAM2 070806Z 12003KT M02/M06 A303 RMK A01 T10181058  RH  074%=      5-min Rain = 0
KAM2 070807Z 13002KT M02/M06 A303 RMK A01 T10191058  RH  074%=      5-min Rain = 0
KAM2 070808Z 16002KT M02/M06 A303 RMK A01 T10201059  RH  075%=      5-min Rain = 0
KAM2 070809Z 17002KT M02/M06 A303 RMK A01 T10191058  RH  075%=      5-min Rain = 0
KAM2 070810Z 15001KT M02/M06 A303 RMK A01 T10191058  RH  075%=      5-min Rain = 0
KAM2 070811Z 16002KT M02/M06 A303 RMK A01 T10191058  RH  075%=      5-min Rain = 0
KAM2 070812Z 16002KT M02/M06 A303 RMK A01 T10201058  RH  075%=      5-min Rain = 0
KAM2 070813Z 16002KT M02/M06 A303 RMK A01 T10191058  RH  075%=      5-min Rain = 0
KAM2 070814Z 17003KT M02/M06 A303 RMK A01 T10201058  RH  075%=      5-min Rain = 0
KAM2 070815Z 17003KT M02/M06 A303 RMK A01 T10201057  RH  076%=      5-min Rain = 0
KAM2 070816Z 18002KT M02/M06 A303 RMK A01 T10201057  RH  076%=      5-min Rain = 0
KAM2 070817Z 19003KT M02/M06 A303 RMK A01 T10201057  RH  076%=      5-min Rain = 0
KAM2 070818Z 20003KT M02/M06 A303 RMK A01 T10211057  RH  076%=      5-min Rain = 0
KAM2 070819Z 21002KT M02/M06 A303 RMK A01 T10211058  RH  076%=      5-min Rain = 0
KAM2 070820Z 22002KT M02/M06 A303 RMK A01 T10211057  RH  076%=      5-min Rain = 0
KAM2 070821Z 21002KT M02/M06 A303 RMK A01 T10211057  RH  076%=      5-min Rain = 0
KAM2 070822Z 21002KT M02/M06 A303 RMK A01 T10211057  RH  076%=      5-min Rain = 0
KAM2 070823Z 20002KT M02/M06 A303 RMK A01 T10211057  RH  076%=      5-min Rain = 0
KAM2 070824Z 19002KT M02/M06 A303 RMK A01 T10211057  RH  076%=      5-min Rain = 0
KAM2 070825Z 18002KT M02/M06 A303 RMK A01 T10211057  RH  076%=      5-min Rain = 0
KAM2 070826Z 18002KT M02/M06 A303 RMK A01 T10201056  RH  076%=      5-min Rain = 0
KAM2 070827Z 17002KT M02/M06 A303 RMK A01 T10191057  RH  076%=      5-min Rain = 0
KAM2 070828Z 18003KT M02/M06 A303 RMK A01 T10191057  RH  075%=      5-min Rain = 0
KAM2 070829Z 18002KT M02/M06 A303 RMK A01 T10181057  RH  075%=      5-min Rain = 0
KAM2 070830Z 18002KT M02/M06 A303 RMK A01 T10171056  RH  075%=      5-min Rain = 0
KAM2 070831Z 19002KT M02/M06 A303 RMK A01 T10181056  RH  075%=      5-min Rain = 0
KAM2 070832Z 20002KT M02/M06 A303 RMK A01 T10181056  RH  075%=      5-min Rain = 0
KAM2 070833Z 19003KT M02/M06 A303 RMK A01 T10181056  RH  075%=      5-min Rain = 0
KAM2 070834Z 20003KT M02/M06 A303 RMK A01 T10181056  RH  075%=      5-min Rain = 0
KAM2 070835Z 20003KT M02/M06 A303 RMK A01 T10191057  RH  075%=      5-min Rain = 0
KAM2 070836Z 19003KT M02/M06 A303 RMK A01 T10191057  RH  076%=      5-min Rain = 0
KAM2 070837Z 18003KT M02/M06 A303 RMK A01 T10191056  RH  076%=      5-min Rain = 0
KAM2 070838Z 18004KT M02/M06 A303 RMK A01 T10191055  RH  076%=      5-min Rain = 0
KAM2 070839Z 18003KT M02/M06 A303 RMK A01 T10201056  RH  076%=      5-min Rain = 0
KAM2 070840Z 18003KT M02/M06 A303 RMK A01 T10191056  RH  076%=      5-min Rain = 0
KAM2 070841Z 18003KT M02/M06 A303 RMK A01 T10191056  RH  076%=      5-min Rain = 0
KAM2 070842Z 18004KT M02/M06 A303 RMK A01 T10191056  RH  076%=      5-min Rain = 0
KAM2 070843Z 18003KT M02/M06 A3031 RMK A01 T10191056  RH  076%=      5-min Rain = 0
KAM2 070844Z 18004KT M02/M06 A3031 RMK A01 T10181056  RH  076%=      5-min Rain = 0
KAM2 070845Z 19003KT M02/M06 A3031 RMK A01 T10191056  RH  076%=      5-min Rain = 0
KAM2 070846Z 20003KT M02/M06 A3031 RMK A01 T10181056  RH  076%=      5-min Rain = 0
KAM2 070847Z 19004KT M02/M06 A3031 RMK A01 T10181055  RH  076%=      5-min Rain = 0
KAM2 070848Z 19003KT M02/M05 A3031 RMK A01 T10181054  RH  076%=      5-min Rain = 0
KAM2 070849Z 19002KT M02/M05 A3031 RMK A01 T10181054  RH  076%=      5-min Rain = 0
KAM2 070850Z 19002KT M02/M05 A3031 RMK A01 T10181054  RH  076%=      5-min Rain = 0
KAM2 070851Z 18002KT M02/M05 A3031 RMK A01 T10181054  RH  076%=      5-min Rain = 0
KAM2 070852Z 18002KT M02/M05 A303 RMK A01 T10181054  RH  076%=      5-min Rain = 0
KAM2 070853Z 18002KT M02/M05 A303 RMK A01 T10181054  RH  076%=      5-min Rain = 0
KAM2 070854Z 19002KT M02/M05 A303 RMK A01 T10181054  RH  076%=      5-min Rain = 0
KAM2 070855Z 20002KT M02/M05 A303 RMK A01 T10181054  RH  076%=      5-min Rain = 0
KAM2 070856Z 21002KT M02/M05 A303 RMK A01 T10181054  RH  076%=      5-min Rain = 0
KAM2 070857Z 22001KT M02/M05 A303 RMK A01 T10181054  RH  077%=      5-min Rain = 0
KAM2 070858Z 19001KT M02/M05 A303 RMK A01 T10181053  RH  077%=      5-min Rain = 0
KAM2 070859Z 19001KT M02/M05 A303 RMK A01 T10181054  RH  077%=      5-min Rain = 0
KAM2 070900Z 16002KT M02/M05 A303 RMK A01 T10181054  RH  077%=      5-min Rain = 0
KAM2 070901Z 18002KT M02/M05 A303 RMK A01 T10181053  RH  077%=      5-min Rain = 0
KAM2 070902Z 19002KT M02/M05 A303 RMK A01 T10181053  RH  077%=      5-min Rain = 0
KAM2 070903Z 17003KT M02/M05 A303 RMK A01 T10181053  RH  077%=      5-min Rain = 0
KAM2 070904Z 17002KT M02/M05 A303 RMK A01 T10181053  RH  077%=      5-min Rain = 0
KAM2 070905Z 18002KT M02/M05 A303 RMK A01 T10181053  RH  077%=      5-min Rain = 0
KAM2 070906Z 17002KT M02/M05 A303 RMK A01 T10181053  RH  077%=      5-min Rain = 0
KAM2 070907Z 18001KT M02/M05 A303 RMK A01 T10191053  RH  077%=      5-min Rain = 0
KAM2 070908Z 17002KT M02/M05 A303 RMK A01 T10191053  RH  077%=      5-min Rain = 0
KAM2 070909Z 17003KT M02/M05 A303 RMK A01 T10191053  RH  077%=      5-min Rain = 0
KAM2 070910Z 17002KT M02/M05 A303 RMK A01 T10191054  RH  077%=      5-min Rain = 0
KAM2 070911Z 17003KT M02/M05 A303 RMK A01 T10181054  RH  077%=      5-min Rain = 0
KAM2 070912Z 17003KT M02/M05 A303 RMK A01 T10181053  RH  077%=      5-min Rain = 0
KAM2 070913Z 17003KT M02/M05 A303 RMK A01 T10181053  RH  077%=      5-min Rain = 0
KAM2 070914Z 17003KT M02/M05 A303 RMK A01 T10181053  RH  077%=      5-min Rain = 0
KAM2 070915Z 17003KT M02/M05 A303 RMK A01 T10181053  RH  077%=      5-min Rain = 0
KAM2 070916Z 16003KT M02/M05 A303 RMK A01 T10181054  RH  076%=      5-min Rain = 0
KAM2 070917Z 16003KT M02/M05 A303 RMK A01 T10181054  RH  076%=      5-min Rain = 0
KAM2 070918Z 16003KT M02/M05 A303 RMK A01 T10181054  RH  076%=      5-min Rain = 0
KAM2 070919Z 15003KT M02/M05 A303 RMK A01 T10181054  RH  076%=      5-min Rain = 0
KAM2 070920Z 16004KT M02/M05 A303 RMK A01 T10191054  RH  077%=      5-min Rain = 0
KAM2 070921Z 17004KT M02/M05 A303 RMK A01 T10191054  RH  077%=      5-min Rain = 0
KAM2 070922Z 17004KT M02/M05 A303 RMK A01 T10191054  RH  077%=      5-min Rain = 0
KAM2 070923Z 18004KT M02/M05 A303 RMK A01 T10191054  RH  077%=      5-min Rain = 0
KAM2 070924Z 18005KT M02/M05 A303 RMK A01 T10191054  RH  077%=      5-min Rain = 0
KAM2 070925Z 18004KT M02/M05 A303 RMK A01 T10191054  RH  077%=      5-min Rain = 0
KAM2 070926Z 19004KT M02/M05 A303 RMK A01 T10191054  RH  077%=      5-min Rain = 0
KAM2 070927Z 19005KT M02/M05 A303 RMK A01 T10191054  RH  077%=      5-min Rain = 0
KAM2 070928Z 18004KT M02/M05 A303 RMK A01 T10181054  RH  077%=      5-min Rain = 0
KAM2 070929Z 19004KT M02/M05 A303 RMK A01 T10181054  RH  077%=      5-min Rain = 0
KAM2 070930Z 19004KT M02/M05 A303 RMK A01 T10181053  RH  077%=      5-min Rain = 0
KAM2 070931Z 18004KT M02/M05 A303 RMK A01 T10181053  RH  077%=      5-min Rain = 0
KAM2 070932Z 19004KT M02/M05 A303 RMK A01 T10181053  RH  077%=      5-min Rain = 0
KAM2 070933Z 18004KT M02/M05 A303 RMK A01 T10181053  RH  077%=      5-min Rain = 0
KAM2 070934Z 19003KT M02/M05 A303 RMK A01 T10181053  RH  077%=      5-min Rain = 0
KAM2 070935Z 18003KT M02/M05 A303 RMK A01 T10181053  RH  077%=      5-min Rain = 0
KAM2 070936Z 18004KT M02/M05 A303 RMK A01 T10181053  RH  077%=      5-min Rain = 0
KAM2 070937Z 18004KT M02/M05 A303 RMK A01 T10181053  RH  077%=      5-min Rain = 0
KAM2 070938Z 18004KT M02/M05 A303 RMK A01 T10181053  RH  077%=      5-min Rain = 0
KAM2 070939Z 18004KT M02/M05 A303 RMK A01 T10171053  RH  077%=      5-min Rain = 0
KAM2 070940Z 18004KT M02/M05 A303 RMK A01 T10181053  RH  077%=      5-min Rain = 0
KAM2 070941Z 18004KT M02/M05 A303 RMK A01 T10181053  RH  077%=      5-min Rain = 0
KAM2 070942Z 18004KT M02/M05 A303 RMK A01 T10181053  RH  077%=      5-min Rain = 0
KAM2 070943Z 18004KT M02/M05 A303 RMK A01 T10181053  RH  077%=      5-min Rain = 0
KAM2 070944Z 19004KT M02/M05 A303 RMK A01 T10181053  RH  077%=      5-min Rain = 0
KAM2 070945Z 19003KT M02/M05 A303 RMK A01 T10181053  RH  077%=      5-min Rain = 0
KAM2 070946Z 18003KT M02/M05 A303 RMK A01 T10191053  RH  077%=      5-min Rain = 0
KAM2 070947Z 18003KT M02/M05 A303 RMK A01 T10191053  RH  077%=      5-min Rain = 0
KAM2 070948Z 18003KT M02/M05 A303 RMK A01 T10181053  RH  077%=      5-min Rain = 0
KAM2 070949Z 17003KT M02/M05 A303 RMK A01 T10181053  RH  077%=      5-min Rain = 0
KAM2 070950Z 17003KT M02/M05 A303 RMK A01 T10181053  RH  077%=      5-min Rain = 0
KAM2 070951Z 17003KT M02/M05 A303 RMK A01 T10181053  RH  077%=      5-min Rain = 0
KAM2 070952Z 17003KT M02/M05 A303 RMK A01 T10181053  RH  077%=      5-min Rain = 0
KAM2 070953Z 17004KT M02/M05 A303 RMK A01 T10181053  RH  077%=      5-min Rain = 0
KAM2 070954Z 16003KT M02/M05 A303 RMK A01 T10181054  RH  077%=      5-min Rain = 0
KAM2 070955Z 16003KT M02/M05 A303 RMK A01 T10181053  RH  076%=      5-min Rain = 0
KAM2 070956Z 16003KT M02/M05 A303 RMK A01 T10181054  RH  076%=      5-min Rain = 0
KAM2 070957Z 16003KT M02/M05 A303 RMK A01 T10171054  RH  076%=      5-min Rain = 0
KAM2 070958Z 16003KT M02/M05 A303 RMK A01 T10181054  RH  076%=      5-min Rain = 0
KAM2 070959Z 16003KT M02/M05 A3029 RMK A01 T10181054  RH  076%=      5-min Rain = 0
KAM2 071000Z 15003KT M02/M05 A303 RMK A01 T10181053  RH  077%=      5-min Rain = 0
KAM2 071001Z 15003KT M02/M05 A303 RMK A01 T10181053  RH  077%=      5-min Rain = 0
KAM2 071002Z 15003KT M02/M05 A303 RMK A01 T10191054  RH  077%=      5-min Rain = 0
KAM2 071003Z 15003KT M02/M05 A303 RMK A01 T10191054  RH  077%=      5-min Rain = 0
KAM2 071004Z 15003KT M02/M05 A303 RMK A01 T10191053  RH  077%=      5-min Rain = 0
KAM2 071005Z 15003KT M02/M05 A3029 RMK A01 T10191053  RH  077%=      5-min Rain = 0
KAM2 071006Z 15003KT M02/M05 A3029 RMK A01 T10191053  RH  077%=      5-min Rain = 0
KAM2 071007Z 15003KT M02/M05 A3029 RMK A01 T10191053  RH  077%=      5-min Rain = 0
KAM2 071008Z 14003KT M02/M05 A3029 RMK A01 T10191053  RH  077%=      5-min Rain = 0
KAM2 071009Z 13002KT M02/M05 A3029 RMK A01 T10191053  RH  077%=      5-min Rain = 0
KAM2 071010Z 13003KT M02/M05 A3029 RMK A01 T10191053  RH  077%=      5-min Rain = 0
KAM2 071011Z 12001KT M02/M05 A3029 RMK A01 T10191053  RH  078%=      5-min Rain = 0
KAM2 071012Z 13002KT M02/M05 A3029 RMK A01 T10191053  RH  078%=      5-min Rain = 0
KAM2 071013Z 13003KT M02/M05 A3029 RMK A01 T10191053  RH  078%=      5-min Rain = 0
KAM2 071014Z 14002KT M02/M05 A3029 RMK A01 T10191053  RH  078%=      5-min Rain = 0
KAM2 071015Z 13003KT M02/M05 A3029 RMK A01 T10191053  RH  078%=      5-min Rain = 0
KAM2 071016Z 13003KT M02/M05 A3029 RMK A01 T10191053  RH  078%=      5-min Rain = 0
KAM2 071017Z 13002KT M02/M05 A3029 RMK A01 T10181052  RH  078%=      5-min Rain = 0
KAM2 071018Z 13002KT M02/M05 A3029 RMK A01 T10181052  RH  078%=      5-min Rain = 0
KAM2 071019Z 13003KT M02/M05 A3028 RMK A01 T10171051  RH  078%=      5-min Rain = 0
KAM2 071020Z 14004KT M02/M05 A3028 RMK A01 T10171051  RH  077%=      5-min Rain = 0
KAM2 071021Z 14004KT M02/M05 A3028 RMK A01 T10171051  RH  077%=      5-min Rain = 0
KAM2 071022Z 14004KT M02/M05 A3028 RMK A01 T10171051  RH  077%=      5-min Rain = 0
KAM2 071023Z 13003KT M02/M05 A3028 RMK A01 T10161051  RH  077%=      5-min Rain = 0
KAM2 071024Z 13004KT M02/M05 A3028 RMK A01 T10161051  RH  077%=      5-min Rain = 0
KAM2 071025Z 11003KT M02/M05 A3028 RMK A01 T10161051  RH  077%=      5-min Rain = 0
KAM2 071026Z 11002KT M02/M05 A3028 RMK A01 T10151051  RH  077%=      5-min Rain = 0
KAM2 071027Z 11003KT M02/M05 A3028 RMK A01 T10161052  RH  076%=      5-min Rain = 0
KAM2 071028Z 11004KT M02/M05 A3027 RMK A01 T10161052  RH  077%=      5-min Rain = 0
KAM2 071029Z 11005KT M02/M05 A3027 RMK A01 T10161051  RH  077%=      5-min Rain = 0
KAM2 071030Z 10005KT M02/M05 A3027 RMK A01 T10161050  RH  078%=      5-min Rain = 0
KAM2 071031Z 10005KT M02/M05 A3027 RMK A01 T10151049  RH  078%=      5-min Rain = 0
KAM2 071032Z 10005KT M01/M05 A3027 RMK A01 T10141048  RH  078%=      5-min Rain = 0
KAM2 071033Z 11005KT M01/M05 A3027 RMK A01 T10141048  RH  078%=      5-min Rain = 0
KAM2 071034Z 11005KT M01/M05 A3027 RMK A01 T10141048  RH  077%=      5-min Rain = 0
KAM2 071035Z 11005KT M01/M05 A3027 RMK A01 T10141049  RH  077%=      5-min Rain = 0
KAM2 071036Z 11005KT M01/M05 A3027 RMK A01 T10131049  RH  076%=      5-min Rain = 0
KAM2 071037Z 11005KT M01/M05 A3027 RMK A01 T10131051  RH  076%=      5-min Rain = 0
KAM2 071038Z 11005KT M01/M05 A3027 RMK A01 T10141052  RH  075%=      5-min Rain = 0
KAM2 071039Z 11004KT M01/M05 A3027 RMK A01 T10141053  RH  075%=      5-min Rain = 0
KAM2 071040Z 11005KT M01/M05 A3026 RMK A01 T10141053  RH  075%=      5-min Rain = 0
KAM2 071041Z 11005KT M01/M05 A3026 RMK A01 T10141053  RH  075%=      5-min Rain = 0
KAM2 071042Z 11005KT M01/M05 A3027 RMK A01 T10141053  RH  075%=      5-min Rain = 0
KAM2 071043Z 11005KT M01/M05 A3027 RMK A01 T10141053  RH  075%=      5-min Rain = 0
KAM2 071044Z 11005KT M01/M05 A3027 RMK A01 T10141052  RH  075%=      5-min Rain = 0
KAM2 071045Z 11005KT M02/M05 A3027 RMK A01 T10151053  RH  075%=      5-min Rain = 0
KAM2 071046Z 11005KT M01/M05 A3027 RMK A01 T10141053  RH  075%=      5-min Rain = 0
KAM2 071047Z 11005KT M01/M05 A3026 RMK A01 T10141052  RH  075%=      5-min Rain = 0
KAM2 071048Z 11005KT M01/M05 A3026 RMK A01 T10141052  RH  075%=      5-min Rain = 0
KAM2 071049Z 11005KT M01/M05 A3027 RMK A01 T10141052  RH  075%=      5-min Rain = 0
KAM2 071050Z 10005KT M01/M05 A3026 RMK A01 T10141052  RH  075%=      5-min Rain = 0
KAM2 071051Z 11004KT M01/M05 A3026 RMK A01 T10141053  RH  075%=      5-min Rain = 0
KAM2 071052Z 11004KT M01/M05 A3026 RMK A01 T10141053  RH  074%=      5-min Rain = 0
KAM2 071053Z 11004KT M01/M05 A3026 RMK A01 T10141054  RH  074%=      5-min Rain = 0
KAM2 071054Z 11004KT M01/M05 A3026 RMK A01 T10131053  RH  074%=      5-min Rain = 0
KAM2 071055Z 11005KT M01/M05 A3026 RMK A01 T10131054  RH  074%=      5-min Rain = 0
KAM2 071056Z 11004KT M01/M05 A3026 RMK A01 T10131054  RH  074%=      5-min Rain = 0
KAM2 071057Z 10004KT M01/M05 A3026 RMK A01 T10131054  RH  074%=      5-min Rain = 0
KAM2 071058Z 10003KT M01/M05 A3026 RMK A01 T10131053  RH  074%=      5-min Rain = 0
KAM2 071059Z 11004KT M01/M05 A3026 RMK A01 T10131052  RH  075%=      5-min Rain = 0
KAM2 071100Z 11004KT M01/M05 A3026 RMK A01 T10131053  RH  074%=      5-min Rain = 0
KAM2 071101Z 11004KT M01/M05 A3026 RMK A01 T10131054  RH  074%=      5-min Rain = 0
KAM2 071102Z 11004KT M01/M05 A3026 RMK A01 T10131054  RH  074%=      5-min Rain = 0
KAM2 071103Z 10003KT M01/M06 A3027 RMK A01 T10131055  RH  073%=      5-min Rain = 0
KAM2 071104Z 09002KT M01/M06 A3027 RMK A01 T10131055  RH  073%=      5-min Rain = 0
KAM2 071105Z 08002KT M01/M05 A3027 RMK A01 T10131053  RH  074%=      5-min Rain = 0
KAM2 071106Z 08003KT M01/M05 A3027 RMK A01 T10131052  RH  075%=      5-min Rain = 0
KAM2 071107Z 08002KT M01/M05 A3027 RMK A01 T10131052  RH  075%=      5-min Rain = 0
KAM2 071108Z 09003KT M01/M05 A3027 RMK A01 T10131052  RH  075%=      5-min Rain = 0
KAM2 071109Z 08003KT M01/M05 A3027 RMK A01 T10141052  RH  075%=      5-min Rain = 0
KAM2 071110Z 08002KT M02/M05 A3027 RMK A01 T10151052  RH  076%=      5-min Rain = 0
KAM2 071111Z 08003KT M02/M05 A3027 RMK A01 T10151052  RH  076%=      5-min Rain = 0
KAM2 071112Z 08003KT M02/M05 A3027 RMK A01 T10151051  RH  076%=      5-min Rain = 0
KAM2 071113Z 07003KT M02/M05 A3027 RMK A01 T10151051  RH  077%=      5-min Rain = 0
KAM2 071114Z 07003KT M02/M05 A3027 RMK A01 T10151050  RH  077%=      5-min Rain = 0
KAM2 071115Z 06003KT M02/M05 A3027 RMK A01 T10161051  RH  077%=      5-min Rain = 0
KAM2 071116Z 06002KT M02/M05 A3027 RMK A01 T10161050  RH  077%=      5-min Rain = 0
KAM2 071117Z 06002KT M02/M05 A3027 RMK A01 T10161050  RH  077%=      5-min Rain = 0
KAM2 071118Z 05001KT M02/M05 A3027 RMK A01 T10161050  RH  078%=      5-min Rain = 0
KAM2 071119Z 01000KT M02/M05 A3027 RMK A01 T10161049  RH  078%=      5-min Rain = 0
KAM2 071120Z 32000KT M02/M05 A3027 RMK A01 T10161049  RH  078%=      5-min Rain = 0
KAM2 071121Z 36000KT M02/M05 A3027 RMK A01 T10161049  RH  078%=      5-min Rain = 0
KAM2 071122Z 32000KT M02/M05 A3027 RMK A01 T10161049  RH  079%=      5-min Rain = 0
KAM2 071123Z 34001KT M02/M05 A3027 RMK A01 T10161049  RH  078%=      5-min Rain = 0
KAM2 071124Z 34001KT M02/M05 A3027 RMK A01 T10161050  RH  078%=      5-min Rain = 0
KAM2 071125Z 33000KT M02/M05 A3027 RMK A01 T10161050  RH  078%=      5-min Rain = 0
KAM2 071126Z 33001KT M02/M05 A3027 RMK A01 T10151050  RH  077%=      5-min Rain = 0
KAM2 071127Z 34001KT M02/M05 A3027 RMK A01 T10151050  RH  078%=      5-min Rain = 0
KAM2 071128Z 35002KT M02/M05 A3027 RMK A01 T10151049  RH  078%=      5-min Rain = 0
KAM2 071129Z 36002KT M02/M05 A3027 RMK A01 T10151049  RH  078%=      5-min Rain = 0
KAM2 071130Z 00001KT M02/M05 A3027 RMK A01 T10151048  RH  078%=      5-min Rain = 0
KAM2 071131Z 04002KT M02/M05 A3027 RMK A01 T10151048  RH  079%=      5-min Rain = 0
KAM2 071132Z 06002KT M02/M05 A3027 RMK A01 T10151048  RH  078%=      5-min Rain = 0
KAM2 071133Z 06002KT M02/M05 A3027 RMK A01 T10151049  RH  078%=      5-min Rain = 0
KAM2 071134Z 07002KT M02/M05 A3027 RMK A01 T10151049  RH  078%=      5-min Rain = 0
KAM2 071135Z 07001KT M02/M05 A3027 RMK A01 T10151049  RH  078%=      5-min Rain = 0
KAM2 071136Z 07001KT M02/M05 A3027 RMK A01 T10151048  RH  078%=      5-min Rain = 0
KAM2 071137Z 07002KT M02/M05 A3027 RMK A01 T10151049  RH  078%=      5-min Rain = 0
KAM2 071138Z 07003KT M02/M05 A3027 RMK A01 T10151048  RH  078%=      5-min Rain = 0
KAM2 071139Z 08003KT M02/M05 A3027 RMK A01 T10151048  RH  078%=      5-min Rain = 0
KAM2 071140Z 08002KT M02/M05 A3027 RMK A01 T10151048  RH  078%=      5-min Rain = 0
KAM2 071141Z 07002KT M02/M05 A3028 RMK A01 T10151048  RH  078%=      5-min Rain = 0
KAM2 071142Z 08003KT M02/M05 A3028 RMK A01 T10151049  RH  078%=      5-min Rain = 0
KAM2 071143Z 08003KT M02/M05 A3028 RMK A01 T10151049  RH  078%=      5-min Rain = 0
KAM2 071144Z 09004KT M02/M05 A3028 RMK A01 T10151049  RH  078%=      5-min Rain = 0
KAM2 071145Z 08004KT M02/M05 A3028 RMK A01 T10151049  RH  078%=      5-min Rain = 0
KAM2 071146Z 08004KT M02/M05 A3028 RMK A01 T10151049  RH  078%=      5-min Rain = 0
KAM2 071147Z 08005KT M01/M05 A3027 RMK A01 T10141048  RH  078%=      5-min Rain = 0
KAM2 071148Z 08005KT M01/M05 A3027 RMK A01 T10141048  RH  078%=      5-min Rain = 0
KAM2 071149Z 08005KT M01/M05 A3027 RMK A01 T10141048  RH  078%=      5-min Rain = 0
KAM2 071150Z 08005KT M01/M05 A3027 RMK A01 T10141049  RH  078%=      5-min Rain = 0
KAM2 071151Z 08004KT M01/M05 A3027 RMK A01 T10141048  RH  078%=      5-min Rain = 0
KAM2 071152Z 09006KT M01/M05 A3027 RMK A01 T10141048  RH  078%=      5-min Rain = 0
KAM2 071153Z 09005KT M01/M05 A3027 RMK A01 T10141048  RH  078%=      5-min Rain = 0
KAM2 071154Z 09004KT M01/M05 A3027 RMK A01 T10141047  RH  078%=      5-min Rain = 0
KAM2 071155Z 09004KT M01/M05 A3027 RMK A01 T10131046  RH  078%=      5-min Rain = 0
KAM2 071156Z 08005KT M01/M05 A3027 RMK A01 T10131047  RH  078%=      5-min Rain = 0
KAM2 071157Z 09005KT M01/M05 A3027 RMK A01 T10131048  RH  077%=      5-min Rain = 0
KAM2 071158Z 09005KT M01/M05 A3027 RMK A01 T10131047  RH  077%=      5-min Rain = 0
KAM2 071159Z 09005KT M01/M05 A3027 RMK A01 T10131047  RH  077%=      5-min Rain = 0
KAM2 071200Z 09006KT M01/M05 A3027 RMK A01 T10131046  RH  078%=      5-min Rain = 0
KAM2 071201Z 09007KT M01/M05 A3027 RMK A01 T10131046  RH  078%=      5-min Rain = 0
KAM2 071202Z 10006KT M01/M05 A3027 RMK A01 T10121046  RH  078%=      5-min Rain = 0
KAM2 071203Z 10006KT M01/M05 A3027 RMK A01 T10121046  RH  078%=      5-min Rain = 0
KAM2 071204Z 10005KT M01/M05 A3027 RMK A01 T10131047  RH  078%=      5-min Rain = 0
KAM2 071205Z 10006KT M01/M05 A3027 RMK A01 T10131046  RH  078%=      5-min Rain = 0
KAM2 071206Z 10005KT M01/M05 A3027 RMK A01 T10131047  RH  077%=      5-min Rain = 0
KAM2 071207Z 10005KT M01/M05 A3027 RMK A01 T10121046  RH  078%=      5-min Rain = 0
KAM2 071208Z 10006KT M01/M05 A3027 RMK A01 T10121045  RH  078%=      5-min Rain = 0
KAM2 071209Z 10006KT M01/M05 A3027 RMK A01 T10121046  RH  078%=      5-min Rain = 0
KAM2 071210Z 10006KT M01/M05 A3028 RMK A01 T10121047  RH  077%=      5-min Rain = 0
KAM2 071211Z 10006KT M01/M05 A3028 RMK A01 T10121047  RH  077%=      5-min Rain = 0
KAM2 071212Z 10005KT M01/M05 A3028 RMK A01 T10121048  RH  077%=      5-min Rain = 0
KAM2 071213Z 10005KT M01/M05 A3028 RMK A01 T10121048  RH  076%=      5-min Rain = 0
KAM2 071214Z 10005KT M01/M05 A3028 RMK A01 T10131049  RH  076%=      5-min Rain = 0
KAM2 071215Z 10006KT M01/M05 A3028 RMK A01 T10121048  RH  077%=      5-min Rain = 0
KAM2 071216Z 10006KT M01/M05 A3028 RMK A01 T10121048  RH  077%=      5-min Rain = 0
KAM2 071217Z 10005KT M01/M05 A3028 RMK A01 T10131048  RH  077%=      5-min Rain = 0
KAM2 071218Z 11005KT M01/M05 A3028 RMK A01 T10131049  RH  076%=      5-min Rain = 0
KAM2 071219Z 11005KT M01/M05 A3028 RMK A01 T10131049  RH  076%=      5-min Rain = 0
KAM2 071220Z 11004KT M01/M05 A3029 RMK A01 T10131049  RH  076%=      5-min Rain = 0
KAM2 071221Z 10004KT M01/M05 A3029 RMK A01 T10131049  RH  076%=      5-min Rain = 0
KAM2 071222Z 11005KT M01/M05 A3029 RMK A01 T10121049  RH  076%=      5-min Rain = 0
KAM2 071223Z 11005KT M01/M05 A3029 RMK A01 T10131049  RH  076%=      5-min Rain = 0
KAM2 071224Z 11004KT M01/M05 A3029 RMK A01 T10121049  RH  076%=      5-min Rain = 0
KAM2 071225Z 11005KT M01/M05 A3029 RMK A01 T10121049  RH  076%=      5-min Rain = 0
KAM2 071226Z 10005KT M01/M05 A3029 RMK A01 T10131050  RH  076%=      5-min Rain = 0
KAM2 071227Z 10005KT M01/M05 A3028 RMK A01 T10131049  RH  076%=      5-min Rain = 0
KAM2 071228Z 10005KT M01/M05 A3028 RMK A01 T10121049  RH  076%=      5-min Rain = 0
KAM2 071229Z 10005KT M01/M05 A3028 RMK A01 T10131049  RH  076%=      5-min Rain = 0
KAM2 071230Z 10005KT M01/M05 A3028 RMK A01 T10131050  RH  076%=      5-min Rain = 0
KAM2 071231Z 10005KT M01/M05 A3028 RMK A01 T10131049  RH  076%=      5-min Rain = 0
KAM2 071232Z 10005KT M01/M05 A3028 RMK A01 T10121049  RH  076%=      5-min Rain = 0
KAM2 071233Z 10005KT M01/M05 A3028 RMK A01 T10121048  RH  076%=      5-min Rain = 0
KAM2 071234Z 10005KT M01/M05 A3028 RMK A01 T10131049  RH  076%=      5-min Rain = 0
KAM2 071235Z 10005KT M01/M05 A3028 RMK A01 T10131049  RH  076%=      5-min Rain = 0
KAM2 071236Z 10005KT M01/M05 A3028 RMK A01 T10121049  RH  076%=      5-min Rain = 0
KAM2 071237Z 10004KT M01/M05 A3028 RMK A01 T10121048  RH  077%=      5-min Rain = 0
KAM2 071238Z 09004KT M01/M05 A3029 RMK A01 T10121048  RH  077%=      5-min Rain = 0
KAM2 071239Z 10003KT M01/M05 A3029 RMK A01 T10131048  RH  077%=      5-min Rain = 0
KAM2 071240Z 10004KT M01/M05 A3028 RMK A01 T10121047  RH  077%=      5-min Rain = 0
KAM2 071241Z 10004KT M01/M05 A3028 RMK A01 T10121047  RH  077%=      5-min Rain = 0
KAM2 071242Z 09004KT M01/M05 A3028 RMK A01 T10121047  RH  077%=      5-min Rain = 0
KAM2 071243Z 09003KT M01/M05 A3028 RMK A01 T10121047  RH  077%=      5-min Rain = 0
KAM2 071244Z 08004KT M01/M05 A3028 RMK A01 T10121047  RH  077%=      5-min Rain = 0
KAM2 071245Z 08005KT M01/M05 A3028 RMK A01 T10121048  RH  076%=      5-min Rain = 0
KAM2 071246Z 09005KT M01/M05 A3028 RMK A01 T10121049  RH  076%=      5-min Rain = 0
KAM2 071247Z 08005KT M01/M05 A3028 RMK A01 T10121049  RH  076%=      5-min Rain = 0
KAM2 071248Z 09004KT M01/M05 A3028 RMK A01 T10121049  RH  076%=      5-min Rain = 0
KAM2 071249Z 09004KT M01/M05 A3028 RMK A01 T10121048  RH  076%=      5-min Rain = 0
KAM2 071250Z 09004KT M01/M05 A3028 RMK A01 T10121048  RH  076%=      5-min Rain = 0
KAM2 071251Z 09003KT M01/M05 A3028 RMK A01 T10111048  RH  076%=      5-min Rain = 0
KAM2 071252Z 10003KT M01/M05 A3029 RMK A01 T10121048  RH  076%=      5-min Rain = 0
KAM2 071253Z 09004KT M01/M05 A3029 RMK A01 T10121047  RH  077%=      5-min Rain = 0
KAM2 071254Z 09004KT M01/M05 A3029 RMK A01 T10111047  RH  077%=      5-min Rain = 0
KAM2 071255Z 08004KT M01/M05 A3029 RMK A01 T10111047  RH  076%=      5-min Rain = 0
KAM2 071256Z 09003KT M01/M05 A3029 RMK A01 T10111048  RH  076%=      5-min Rain = 0
KAM2 071257Z 09004KT M01/M05 A3029 RMK A01 T10111048  RH  076%=      5-min Rain = 0
KAM2 071258Z 09005KT M01/M05 A3029 RMK A01 T10111048  RH  076%=      5-min Rain = 0
KAM2 071259Z 10004KT M01/M05 A3029 RMK A01 T10111048  RH  076%=      5-min Rain = 0
KAM2 071300Z 10004KT M01/M05 A3029 RMK A01 T10111047  RH  076%=      5-min Rain = 0
KAM2 071301Z 11005KT M01/M05 A3029 RMK A01 T10111047  RH  076%=      5-min Rain = 0
KAM2 071302Z 11005KT M01/M05 A3029 RMK A01 T10101048  RH  075%=      5-min Rain = 0
KAM2 071303Z 12003KT M01/M05 A3029 RMK A01 T10111049  RH  075%=      5-min Rain = 0
KAM2 071304Z 11004KT M01/M05 A3029 RMK A01 T10111049  RH  075%=      5-min Rain = 0
KAM2 071305Z 11005KT M01/M05 A303 RMK A01 T10111050  RH  075%=      5-min Rain = 0
KAM2 071306Z 11005KT M01/M05 A303 RMK A01 T10111050  RH  075%=      5-min Rain = 0
KAM2 071307Z 11005KT M01/M05 A303 RMK A01 T10111050  RH  075%=      5-min Rain = 0
KAM2 071308Z 10005KT M01/M05 A3029 RMK A01 T10111050  RH  075%=      5-min Rain = 0
KAM2 071309Z 10005KT M01/M05 A3029 RMK A01 T10111049  RH  075%=      5-min Rain = 0
KAM2 071310Z 10005KT M01/M05 A3029 RMK A01 T10101049  RH  075%=      5-min Rain = 0
KAM2 071311Z 10005KT M01/M05 A3029 RMK A01 T10101048  RH  075%=      5-min Rain = 0
KAM2 071312Z 10005KT M01/M05 A303 RMK A01 T10101048  RH  075%=      5-min Rain = 0
KAM2 071313Z 10005KT M01/M05 A303 RMK A01 T10111048  RH  075%=      5-min Rain = 0
KAM2 071314Z 10005KT M01/M05 A303 RMK A01 T10111049  RH  075%=      5-min Rain = 0
KAM2 071315Z 10005KT M01/M05 A303 RMK A01 T10111049  RH  075%=      5-min Rain = 0
KAM2 071316Z 10005KT M01/M05 A303 RMK A01 T10111048  RH  076%=      5-min Rain = 0
KAM2 071317Z 11004KT M01/M05 A303 RMK A01 T10111049  RH  076%=      5-min Rain = 0
KAM2 071318Z 11004KT M01/M05 A303 RMK A01 T10111049  RH  075%=      5-min Rain = 0
KAM2 071319Z 11004KT M01/M05 A303 RMK A01 T10111050  RH  075%=      5-min Rain = 0
KAM2 071320Z 11004KT M01/M05 A303 RMK A01 T10111050  RH  075%=      5-min Rain = 0
KAM2 071321Z 11005KT M01/M05 A303 RMK A01 T10111050  RH  075%=      5-min Rain = 0
KAM2 071322Z 11005KT M01/M05 A303 RMK A01 T10121050  RH  075%=      5-min Rain = 0
KAM2 071323Z 11005KT M01/M05 A303 RMK A01 T10121050  RH  075%=      5-min Rain = 0
KAM2 071324Z 11005KT M01/M05 A303 RMK A01 T10121050  RH  075%=      5-min Rain = 0
KAM2 071325Z 11004KT M01/M05 A303 RMK A01 T10121050  RH  075%=      5-min Rain = 0
KAM2 071326Z 11004KT M01/M05 A303 RMK A01 T10121050  RH  075%=      5-min Rain = 0
KAM2 071327Z 11004KT M01/M05 A303 RMK A01 T10121050  RH  075%=      5-min Rain = 0
KAM2 071328Z 10004KT M01/M05 A303 RMK A01 T10121050  RH  076%=      5-min Rain = 0
KAM2 071329Z 10005KT M01/M05 A303 RMK A01 T10131050  RH  076%=      5-min Rain = 0
KAM2 071330Z 11006KT M01/M05 A303 RMK A01 T10131050  RH  076%=      5-min Rain = 0
KAM2 071331Z 10005KT M01/M05 A303 RMK A01 T10131050  RH  076%=      5-min Rain = 0
KAM2 071332Z 10006KT M01/M05 A303 RMK A01 T10141050  RH  076%=      5-min Rain = 0
KAM2 071333Z 11005KT M01/M05 A303 RMK A01 T10141050  RH  077%=      5-min Rain = 0
KAM2 071334Z 10005KT M01/M05 A303 RMK A01 T10141050  RH  077%=      5-min Rain = 0
KAM2 071335Z 11005KT M02/M05 A303 RMK A01 T10151050  RH  077%=      5-min Rain = 0
KAM2 071336Z 11005KT M02/M05 A303 RMK A01 T10151050  RH  077%=      5-min Rain = 0
KAM2 071337Z 12005KT M02/M05 A303 RMK A01 T10151050  RH  077%=      5-min Rain = 0
KAM2 071338Z 12005KT M02/M05 A303 RMK A01 T10161050  RH  077%=      5-min Rain = 0
KAM2 071339Z 12005KT M02/M05 A303 RMK A01 T10161050  RH  078%=      5-min Rain = 0
KAM2 071340Z 12005KT M02/M05 A3031 RMK A01 T10161049  RH  078%=      5-min Rain = 0
KAM2 071341Z 12006KT M02/M05 A3031 RMK A01 T10161049  RH  078%=      5-min Rain = 0
KAM2 071342Z 13005KT M02/M05 A3031 RMK A01 T10151049  RH  078%=      5-min Rain = 0
KAM2 071343Z 12005KT M02/M05 A3031 RMK A01 T10151048  RH  078%=      5-min Rain = 0
KAM2 071344Z 12006KT M02/M05 A3031 RMK A01 T10151049  RH  078%=      5-min Rain = 0
KAM2 071345Z 12006KT M02/M05 A3031 RMK A01 T10151049  RH  078%=      5-min Rain = 0
KAM2 071346Z 12006KT M02/M05 A3031 RMK A01 T10151050  RH  077%=      5-min Rain = 0
KAM2 071347Z 12006KT M02/M05 A3031 RMK A01 T10151050  RH  077%=      5-min Rain = 0
KAM2 071348Z 12005KT M02/M05 A3031 RMK A01 T10151050  RH  077%=      5-min Rain = 0
KAM2 071349Z 11006KT M02/M05 A3031 RMK A01 T10161051  RH  077%=      5-min Rain = 0
KAM2 071350Z 11007KT M02/M05 A3031 RMK A01 T10161051  RH  077%=      5-min Rain = 0
KAM2 071351Z 11005KT M02/M05 A3031 RMK A01 T10171051  RH  077%=      5-min Rain = 0
KAM2 071352Z 11007KT M02/M05 A3031 RMK A01 T10171051  RH  077%=      5-min Rain = 0
KAM2 071353Z 11007KT M02/M05 A3031 RMK A01 T10171052  RH  077%=      5-min Rain = 0
KAM2 071354Z 11006KT M02/M05 A3031 RMK A01 T10181052  RH  077%=      5-min Rain = 0
KAM2 071355Z 11006KT M02/M05 A3031 RMK A01 T10181052  RH  077%=      5-min Rain = 0
KAM2 071356Z 11006KT M02/M05 A3031 RMK A01 T10171052  RH  078%=      5-min Rain = 0
KAM2 071357Z 11007KT M02/M05 A3031 RMK A01 T10181052  RH  078%=      5-min Rain = 0
KAM2 071358Z 11006KT M02/M05 A3031 RMK A01 T10171051  RH  078%=      5-min Rain = 0
KAM2 071359Z 11006KT M02/M05 A3031 RMK A01 T10171051  RH  078%=      5-min Rain = 0
KAM2 071400Z 11005KT M02/M05 A3031 RMK A01 T10181051  RH  078%=      5-min Rain = 0
KAM2 071401Z 11006KT M02/M05 A3031 RMK A01 T10171051  RH  078%=      5-min Rain = 0
KAM2 071402Z 10006KT M02/M05 A3031 RMK A01 T10171051  RH  078%=      5-min Rain = 0
KAM2 071403Z 11007KT M02/M05 A3032 RMK A01 T10171050  RH  078%=      5-min Rain = 0
KAM2 071404Z 11006KT M02/M05 A3032 RMK A01 T10181051  RH  078%=      5-min Rain = 0
KAM2 071405Z 12006KT M02/M05 A3032 RMK A01 T10181051  RH  078%=      5-min Rain = 0
KAM2 071406Z 11005KT M02/M05 A3032 RMK A01 T10171051  RH  078%=      5-min Rain = 0
KAM2 071407Z 11006KT M02/M05 A3032 RMK A01 T10171051  RH  078%=      5-min Rain = 0
KAM2 071408Z 11006KT M02/M05 A3032 RMK A01 T10171051  RH  078%=      5-min Rain = 0
KAM2 071409Z 11006KT M02/M05 A3032 RMK A01 T10171051  RH  078%=      5-min Rain = 0
KAM2 071410Z 11005KT M02/M05 A3032 RMK A01 T10181051  RH  078%=      5-min Rain = 0
KAM2 071411Z 11005KT M02/M05 A3032 RMK A01 T10181051  RH  078%=      5-min Rain = 0
KAM2 071412Z 12005KT M02/M05 A3032 RMK A01 T10181051  RH  078%=      5-min Rain = 0
KAM2 071413Z 12005KT M02/M05 A3032 RMK A01 T10171050  RH  078%=      5-min Rain = 0
KAM2 071414Z 12005KT M02/M05 A3032 RMK A01 T10171049  RH  079%=      5-min Rain = 0
KAM2 071415Z 12005KT M02/M05 A3032 RMK A01 T10171049  RH  079%=      5-min Rain = 0
KAM2 071416Z 11006KT M02/M05 A3032 RMK A01 T10161049  RH  079%=      5-min Rain = 0
KAM2 071417Z 12005KT M02/M05 A3031 RMK A01 T10171049  RH  078%=      5-min Rain = 0
KAM2 071418Z 12005KT M02/M05 A3031 RMK A01 T10161049  RH  079%=      5-min Rain = 0
KAM2 071419Z 12005KT M02/M05 A3031 RMK A01 T10161048  RH  079%=      5-min Rain = 0
KAM2 071420Z 13006KT M02/M05 A3031 RMK A01 T10161049  RH  079%=      5-min Rain = 0
KAM2 071421Z 13006KT M02/M05 A3031 RMK A01 T10161048  RH  079%=      5-min Rain = 0
KAM2 071422Z 12006KT M02/M05 A3031 RMK A01 T10151047  RH  079%=      5-min Rain = 0
KAM2 071423Z 12006KT M02/M05 A3031 RMK A01 T10151047  RH  079%=      5-min Rain = 0
KAM2 071424Z 12006KT M02/M05 A3031 RMK A01 T10151047  RH  079%=      5-min Rain = 0
KAM2 071425Z 13006KT M01/M05 A3032 RMK A01 T10141047  RH  079%=      5-min Rain = 0
KAM2 071426Z 13006KT M01/M05 A3032 RMK A01 T10141046  RH  078%=      5-min Rain = 0
KAM2 071427Z 14006KT M01/M05 A3032 RMK A01 T10141046  RH  078%=      5-min Rain = 0
KAM2 071428Z 14006KT M01/M05 A3032 RMK A01 T10141046  RH  078%=      5-min Rain = 0
KAM2 071429Z 15005KT M01/M05 A3032 RMK A01 T10141047  RH  078%=      5-min Rain = 0
KAM2 071430Z 15004KT M01/M05 A3032 RMK A01 T10131046  RH  078%=      5-min Rain = 0
KAM2 071431Z 15003KT M01/M05 A3032 RMK A01 T10141046  RH  078%=      5-min Rain = 0
KAM2 071432Z 15004KT M01/M05 A3032 RMK A01 T10131046  RH  078%=      5-min Rain = 0
KAM2 071433Z 14005KT M01/M05 A3032 RMK A01 T10131047  RH  078%=      5-min Rain = 0
KAM2 071434Z 13004KT M01/M05 A3032 RMK A01 T10131047  RH  078%=      5-min Rain = 0
KAM2 071435Z 13006KT M01/M05 A3032 RMK A01 T10131046  RH  078%=      5-min Rain = 0
KAM2 071436Z 14006KT M01/M05 A3032 RMK A01 T10131047  RH  078%=      5-min Rain = 0
KAM2 071437Z 14005KT M01/M05 A3032 RMK A01 T10121047  RH  077%=      5-min Rain = 0
KAM2 071438Z 14007KT M01/M05 A3032 RMK A01 T10121047  RH  077%=      5-min Rain = 0
KAM2 071439Z 14006KT M01/M05 A3032 RMK A01 T10121047  RH  077%=      5-min Rain = 0
KAM2 071440Z 13005KT M01/M05 A3032 RMK A01 T10121047  RH  077%=      5-min Rain = 0
KAM2 071441Z 13004KT M01/M05 A3032 RMK A01 T10121047  RH  077%=      5-min Rain = 0
KAM2 071442Z 13004KT M01/M05 A3032 RMK A01 T10121047  RH  077%=      5-min Rain = 0
KAM2 071443Z 13005KT M01/M05 A3032 RMK A01 T10111046  RH  077%=      5-min Rain = 0
KAM2 071444Z 13004KT M01/M05 A3032 RMK A01 T10101045  RH  077%=      5-min Rain = 0
KAM2 071445Z 12004KT M01/M05 A3032 RMK A01 T10111045  RH  077%=      5-min Rain = 0
KAM2 071446Z 13005KT M01/M05 A3032 RMK A01 T10101045  RH  077%=      5-min Rain = 0
KAM2 071447Z 13005KT M01/M05 A3032 RMK A01 T10101045  RH  077%=      5-min Rain = 0
KAM2 071448Z 12006KT M01/M05 A3032 RMK A01 T10101046  RH  076%=      5-min Rain = 0
KAM2 071449Z 13006KT M01/M05 A3032 RMK A01 T10101046  RH  076%=      5-min Rain = 0
KAM2 071450Z 12007KT M01/M05 A3032 RMK A01 T10101046  RH  076%=      5-min Rain = 0
KAM2 071451Z 12006KT M01/M05 A3032 RMK A01 T10101047  RH  076%=      5-min Rain = 0
KAM2 071452Z 12007KT M01/M05 A3032 RMK A01 T10101046  RH  076%=      5-min Rain = 0
KAM2 071453Z 13006KT M01/M05 A3033 RMK A01 T10101047  RH  076%=      5-min Rain = 0
KAM2 071454Z 13007KT M01/M05 A3033 RMK A01 T10091046  RH  076%=      5-min Rain = 0
KAM2 071455Z 12006KT M01/M05 A3033 RMK A01 T10091046  RH  076%=      5-min Rain = 0
KAM2 071456Z 12006KT M01/M05 A3032 RMK A01 T10081045  RH  076%=      5-min Rain = 0
KAM2 071457Z 13006KT M01/M05 A3032 RMK A01 T10081045  RH  076%=      5-min Rain = 0
KAM2 071458Z 13006KT M01/M05 A3032 RMK A01 T10081046  RH  076%=      5-min Rain = 0
KAM2 071459Z 11006KT M01/M05 A3032 RMK A01 T10081046  RH  075%=      5-min Rain = 0
KAM2 071500Z 10005KT M01/M05 A3032 RMK A01 T10081046  RH  076%=      5-min Rain = 0
KAM2 071501Z 11005KT M01/M05 A3032 RMK A01 T10081045  RH  076%=      5-min Rain = 0
KAM2 071502Z 10006KT M01/M04 A3032 RMK A01 T10081044  RH  077%=      5-min Rain = 0
KAM2 071503Z 11005KT M01/M04 A3032 RMK A01 T10081044  RH  076%=      5-min Rain = 0
KAM2 071504Z 11006KT M01/M05 A3032 RMK A01 T10081045  RH  076%=      5-min Rain = 0
KAM2 071505Z 11005KT M01/M05 A3033 RMK A01 T10081045  RH  076%=      5-min Rain = 0
KAM2 071506Z 11007KT M01/M05 A3033 RMK A01 T10081045  RH  076%=      5-min Rain = 0
KAM2 071507Z 11006KT M01/M05 A3033 RMK A01 T10091046  RH  076%=      5-min Rain = 0
KAM2 071508Z 12006KT M01/M05 A3033 RMK A01 T10091046  RH  076%=      5-min Rain = 0
KAM2 071509Z 12007KT M01/M05 A3033 RMK A01 T10091046  RH  076%=      5-min Rain = 0
KAM2 071510Z 12007KT M01/M05 A3033 RMK A01 T10091046  RH  076%=      5-min Rain = 0
KAM2 071511Z 12005KT M01/M05 A3033 RMK A01 T10091046  RH  076%=      5-min Rain = 0
KAM2 071512Z 11005KT M01/M05 A3033 RMK A01 T10091045  RH  076%=      5-min Rain = 0
KAM2 071513Z 12006KT M01/M04 A3033 RMK A01 T10081044  RH  076%=      5-min Rain = 0
KAM2 071514Z 12008KT M01/M05 A3033 RMK A01 T10071045  RH  076%=      5-min Rain = 0
KAM2 071515Z 11007KT M01/M05 A3033 RMK A01 T10071046  RH  075%=      5-min Rain = 0
KAM2 071516Z 12006KT M01/M05 A3033 RMK A01 T10081046  RH  075%=      5-min Rain = 0
KAM2 071517Z 12005KT M01/M05 A3033 RMK A01 T10081045  RH  076%=      5-min Rain = 0
KAM2 071518Z 11007KT M01/M05 A3033 RMK A01 T10071045  RH  075%=      5-min Rain = 0
KAM2 071519Z 12006KT M01/M05 A3034 RMK A01 T10071045  RH  075%=      5-min Rain = 0
KAM2 071520Z 11007KT M01/M05 A3034 RMK A01 T10071046  RH  075%=      5-min Rain = 0
KAM2 071521Z 12006KT M01/M05 A3034 RMK A01 T10071046  RH  075%=      5-min Rain = 0
KAM2 071522Z 13007KT M01/M05 A3034 RMK A01 T10071046  RH  075%=      5-min Rain = 0
KAM2 071523Z 13007KT M01/M05 A3034 RMK A01 T10061046  RH  075%=      5-min Rain = 0
KAM2 071524Z 13007KT M01/M05 A3034 RMK A01 T10061046  RH  074%=      5-min Rain = 0
KAM2 071525Z 12008KT M01/M05 A3034 RMK A01 T10061046  RH  075%=      5-min Rain = 0
KAM2 071526Z 12007KT M01/M05 A3035 RMK A01 T10061046  RH  074%=      5-min Rain = 0
KAM2 071527Z 12007KT M01/M05 A3035 RMK A01 T10061046  RH  074%=      5-min Rain = 0
KAM2 071528Z 14006KT M01/M05 A3035 RMK A01 T10051046  RH  074%=      5-min Rain = 0
KAM2 071529Z 15006KT M01/M05 A3035 RMK A01 T10051045  RH  074%=      5-min Rain = 0
KAM2 071530Z 14006KT M00/M05 A3035 RMK A01 T10041045  RH  074%=      5-min Rain = 0
KAM2 071531Z 14007KT M00/M04 A3034 RMK A01 T10041044  RH  074%=      5-min Rain = 0
KAM2 071532Z 14007KT M00/M04 A3034 RMK A01 T10031044  RH  074%=      5-min Rain = 0
KAM2 071533Z 14008KT M00/M04 A3034 RMK A01 T10021044  RH  073%=      5-min Rain = 0
KAM2 071534Z 14008KT M00/M05 A3034 RMK A01 T10021046  RH  073%=      5-min Rain = 0
KAM2 071535Z 14006KT M00/M05 A3034 RMK A01 T10041046  RH  073%=      5-min Rain = 0
KAM2 071536Z 14006KT M00/M05 A3034 RMK A01 T10031045  RH  074%=      5-min Rain = 0
KAM2 071537Z 14007KT M00/M05 A3034 RMK A01 T10031045  RH  073%=      5-min Rain = 0
KAM2 071538Z 14007KT M00/M04 A3034 RMK A01 T10021044  RH  073%=      5-min Rain = 0
KAM2 071539Z 15007KT M00/M04 A3034 RMK A01 T10021044  RH  073%=      5-min Rain = 0
KAM2 071540Z 15007KT M00/M05 A3034 RMK A01 T10021045  RH  073%=      5-min Rain = 0
KAM2 071541Z 15008KT M00/M04 A3034 RMK A01 T10011044  RH  073%=      5-min Rain = 0
KAM2 071542Z 15009KT M00/M04 A3034 RMK A01 T10011044  RH  072%=      5-min Rain = 0
KAM2 071543Z 16008KT M00/M05 A3034 RMK A01 T10011045  RH  072%=      5-min Rain = 0
KAM2 071544Z 15010KT M00/M05 A3034 RMK A01 T10011045  RH  072%=      5-min Rain = 0
KAM2 071545Z 15009KT M00/M05 A3034 RMK A01 T10021046  RH  072%=      5-min Rain = 0
KAM2 071546Z 14009KT M00/M05 A3034 RMK A01 T10021045  RH  073%=      5-min Rain = 0
KAM2 071547Z 14010KT M00/M05 A3034 RMK A01 T10021045  RH  073%=      5-min Rain = 0
KAM2 071548Z 15010KT M00/M05 A3034 RMK A01 T10031046  RH  073%=      5-min Rain = 0
KAM2 071549Z 16008KT M00/M05 A3034 RMK A01 T10031046  RH  073%=      5-min Rain = 0
KAM2 071550Z 15008KT M00/M05 A3034 RMK A01 T10031046  RH  073%=      5-min Rain = 0
KAM2 071551Z 15008KT M00/M05 A3034 RMK A01 T10021045  RH  073%=      5-min Rain = 0
KAM2 071552Z 14010KT M00/M05 A3034 RMK A01 T10021045  RH  072%=      5-min Rain = 0
KAM2 071553Z 15010KT M00/M05 A3034 RMK A01 T10021047  RH  072%=      5-min Rain = 0
KAM2 071554Z 15009KT M00/M05 A3035 RMK A01 T10031047  RH  072%=      5-min Rain = 0
KAM2 071555Z 16009KT M00/M05 A3035 RMK A01 T10031047  RH  072%=      5-min Rain = 0
KAM2 071556Z 16009KT M00/M05 A3035 RMK A01 T10031047  RH  072%=      5-min Rain = 0
KAM2 071557Z 16009KT M00/M05 A3035 RMK A01 T10031046  RH  073%=      5-min Rain = 0
KAM2 071558Z 16009KT M00/M05 A3035 RMK A01 T10031047  RH  072%=      5-min Rain = 0
KAM2 071559Z 16008KT M00/M05 A3035 RMK A01 T10031047  RH  072%=      5-min Rain = 0
KAM2 071600Z 16009KT M00/M05 A3035 RMK A01 T10031047  RH  072%=      5-min Rain = 0
KAM2 071601Z 15010KT M00/M05 A3035 RMK A01 T10031047  RH  072%=      5-min Rain = 0
KAM2 071602Z 16011KT M00/M05 A3035 RMK A01 T10031047  RH  072%=      5-min Rain = 0
KAM2 071603Z 16009KT M00/M05 A3035 RMK A01 T10031047  RH  072%=      5-min Rain = 0
KAM2 071604Z 15009KT M00/M05 A3035 RMK A01 T10031047  RH  072%=      5-min Rain = 0
KAM2 071605Z 16008KT M00/M05 A3035 RMK A01 T10031047  RH  072%=      5-min Rain = 0
KAM2 071606Z 15008KT M00/M05 A3035 RMK A01 T10031047  RH  072%=      5-min Rain = 0
KAM2 071607Z 16008KT M00/M05 A3035 RMK A01 T10021046  RH  072%=      5-min Rain = 0
KAM2 071608Z 17009KT M00/M05 A3034 RMK A01 T10011045  RH  072%=      5-min Rain = 0
KAM2 071609Z 17009KT M00/M05 A3034 RMK A01 T10011046  RH  072%=      5-min Rain = 0
KAM2 071610Z 16008KT M00/M05 A3034 RMK A01 T10011046  RH  072%=      5-min Rain = 0
KAM2 071611Z 16008KT M00/M05 A3034 RMK A01 T10011046  RH  072%=      5-min Rain = 0
KAM2 071612Z 16010KT M00/M05 A3034 RMK A01 T10011046  RH  071%=      5-min Rain = 0
KAM2 071613Z 15009KT M00/M05 A3034 RMK A01 T10011046  RH  071%=      5-min Rain = 0
KAM2 071614Z 15007KT M00/M05 A3034 RMK A01 T10011046  RH  071%=      5-min Rain = 0
KAM2 071615Z 15009KT M00/M05 A3034 RMK A01 T10011046  RH  071%=      5-min Rain = 0
KAM2 071616Z 14007KT 00/05 A3035 RMK A01 T00000-46  RH  071%=      5-min Rain = 0
KAM2 071617Z 14008KT 00/M05 A3035 RMK A01 T00011045  RH  071%=      5-min Rain = 0
KAM2 071618Z 14008KT 00/M05 A3035 RMK A01 T00021046  RH  071%=      5-min Rain = 0
KAM2 071619Z 15008KT 00/M05 A3035 RMK A01 T00021046  RH  070%=      5-min Rain = 0
KAM2 071620Z 15008KT 00/M05 A3035 RMK A01 T00021046  RH  070%=      5-min Rain = 0
KAM2 071621Z 15007KT 00/M05 A3035 RMK A01 T00021046  RH  070%=      5-min Rain = 0
KAM2 071622Z 14007KT 00/M05 A3035 RMK A01 T00021045  RH  071%=      5-min Rain = 0
KAM2 071623Z 14007KT 00/M05 A3035 RMK A01 T00031045  RH  070%=      5-min Rain = 0
KAM2 071624Z 13006KT 00/M05 A3035 RMK A01 T00031046  RH  070%=      5-min Rain = 0
KAM2 071625Z 13005KT 00/M05 A3035 RMK A01 T00041046  RH  069%=      5-min Rain = 0
KAM2 071626Z 15004KT 00/M05 A3035 RMK A01 T00031046  RH  069%=      5-min Rain = 0
KAM2 071627Z 14007KT 00/M04 A3035 RMK A01 T00041044  RH  070%=      5-min Rain = 0
KAM2 071628Z 13007KT 01/M05 A3035 RMK A01 T00051045  RH  069%=      5-min Rain = 0
KAM2 071629Z 13005KT 01/M05 A3035 RMK A01 T00051046  RH  069%=      5-min Rain = 0
KAM2 071630Z 14007KT 00/M05 A3035 RMK A01 T00041046  RH  069%=      5-min Rain = 0
KAM2 071631Z 14006KT 00/M05 A3035 RMK A01 T00041046  RH  069%=      5-min Rain = 0
KAM2 071632Z 13005KT 00/M05 A3035 RMK A01 T00041046  RH  069%=      5-min Rain = 0
KAM2 071633Z 13005KT 00/M05 A3035 RMK A01 T00041046  RH  069%=      5-min Rain = 0
KAM2 071634Z 11006KT 01/M05 A3035 RMK A01 T00051046  RH  069%=      5-min Rain = 0
KAM2 071635Z 11005KT 00/M05 A3035 RMK A01 T00041046  RH  069%=      5-min Rain = 0
KAM2 071636Z 12005KT 00/M05 A3035 RMK A01 T00041046  RH  069%=      5-min Rain = 0
KAM2 071637Z 12005KT 00/M05 A3035 RMK A01 T00031047  RH  069%=      5-min Rain = 0
KAM2 071638Z 16005KT 00/M05 A3035 RMK A01 T00041046  RH  069%=      5-min Rain = 0
KAM2 071639Z 15004KT 01/M05 A3035 RMK A01 T00051046  RH  069%=      5-min Rain = 0
KAM2 071640Z 13005KT 01/M05 A3035 RMK A01 T00051046  RH  069%=      5-min Rain = 0
KAM2 071641Z 11006KT 01/M05 A3035 RMK A01 T00051045  RH  069%=      5-min Rain = 0
KAM2 071642Z 12004KT 01/M04 A3035 RMK A01 T00061044  RH  069%=      5-min Rain = 0
KAM2 071643Z 13004KT 01/M04 A3035 RMK A01 T00081043  RH  069%=      5-min Rain = 0
KAM2 071644Z 14004KT 01/M04 A3035 RMK A01 T00091044  RH  068%=      5-min Rain = 0
KAM2 071645Z 15004KT 01/M05 A3035 RMK A01 T00091046  RH  067%=      5-min Rain = 0
KAM2 071646Z 16003KT 01/M05 A3035 RMK A01 T00071046  RH  067%=      5-min Rain = 0
KAM2 071647Z 15006KT 01/M05 A3035 RMK A01 T00071046  RH  068%=      5-min Rain = 0
KAM2 071648Z 14006KT 01/M05 A3035 RMK A01 T00071046  RH  068%=      5-min Rain = 0
KAM2 071649Z 14006KT 01/M05 A3035 RMK A01 T00061047  RH  068%=      5-min Rain = 0
KAM2 071650Z 14004KT 01/M05 A3035 RMK A01 T00051047  RH  068%=      5-min Rain = 0
KAM2 071651Z 14003KT 01/M05 A3035 RMK A01 T00051047  RH  068%=      5-min Rain = 0
KAM2 071652Z 12003KT 01/M05 A3035 RMK A01 T00051047  RH  068%=      5-min Rain = 0
KAM2 071653Z 14002KT 01/M05 A3035 RMK A01 T00051046  RH  068%=      5-min Rain = 0
KAM2 071654Z 15005KT 01/M05 A3034 RMK A01 T00071045  RH  068%=      5-min Rain = 0
KAM2 071655Z 12005KT 01/M04 A3034 RMK A01 T00081044  RH  068%=      5-min Rain = 0
KAM2 071656Z 11006KT 01/M04 A3034 RMK A01 T00101043  RH  068%=      5-min Rain = 0
KAM2 071657Z 13007KT 01/M04 A3034 RMK A01 T00101044  RH  067%=      5-min Rain = 0
KAM2 071658Z 17005KT 01/M05 A3034 RMK A01 T00101045  RH  067%=      5-min Rain = 0
KAM2 071659Z 17003KT 01/M05 A3034 RMK A01 T00101045  RH  067%=      5-min Rain = 0
KAM2 071700Z 16004KT 01/M05 A3034 RMK A01 T00101045  RH  066%=      5-min Rain = 0
KAM2 071701Z 18003KT 01/M05 A3034 RMK A01 T00111045  RH  066%=      5-min Rain = 0
KAM2 071702Z 18004KT 01/M05 A3034 RMK A01 T00111046  RH  066%=      5-min Rain = 0
KAM2 071703Z 17004KT 01/M05 A3034 RMK A01 T00101047  RH  066%=      5-min Rain = 0
KAM2 071704Z 17006KT 01/M05 A3034 RMK A01 T00101046  RH  066%=      5-min Rain = 0
KAM2 071705Z 18003KT 01/M05 A3034 RMK A01 T00101047  RH  065%=      5-min Rain = 0
KAM2 071706Z 18003KT 01/M05 A3034 RMK A01 T00091047  RH  066%=      5-min Rain = 0
KAM2 071707Z 13003KT 01/M05 A3034 RMK A01 T00101046  RH  066%=      5-min Rain = 0
KAM2 071708Z 12004KT 01/M05 A3034 RMK A01 T00111045  RH  066%=      5-min Rain = 0
KAM2 071709Z 12005KT 01/M05 A3034 RMK A01 T00121045  RH  065%=      5-min Rain = 0
KAM2 071710Z 13005KT 01/M05 A3034 RMK A01 T00131046  RH  065%=      5-min Rain = 0
KAM2 071711Z 13006KT 01/M05 A3034 RMK A01 T00131046  RH  065%=      5-min Rain = 0
KAM2 071712Z 13005KT 01/M05 A3034 RMK A01 T00141045  RH  065%=      5-min Rain = 0
KAM2 071713Z 13004KT 01/M05 A3033 RMK A01 T00131047  RH  064%=      5-min Rain = 0
KAM2 071714Z 13004KT 01/M05 A3034 RMK A01 T00131046  RH  065%=      5-min Rain = 0
KAM2 071715Z 13005KT 01/M05 A3033 RMK A01 T00131047  RH  064%=      5-min Rain = 0
KAM2 071716Z 11003KT 01/M05 A3033 RMK A01 T00121048  RH  065%=      5-min Rain = 0
KAM2 071717Z 12005KT 01/M05 A3033 RMK A01 T00111047  RH  065%=      5-min Rain = 0
KAM2 071718Z 16004KT 01/M05 A3033 RMK A01 T00121046  RH  065%=      5-min Rain = 0
KAM2 071719Z 16003KT 01/M05 A3033 RMK A01 T00121047  RH  065%=      5-min Rain = 0
KAM2 071720Z 11003KT 01/M05 A3033 RMK A01 T00121046  RH  065%=      5-min Rain = 0
KAM2 071721Z 11004KT 01/M05 A3033 RMK A01 T00131047  RH  065%=      5-min Rain = 0
KAM2 071722Z 13004KT 01/M05 A3033 RMK A01 T00121047  RH  065%=      5-min Rain = 0
KAM2 071723Z 13004KT 01/M05 A3033 RMK A01 T00121046  RH  065%=      5-min Rain = 0
KAM2 071724Z 16003KT 01/M05 A3033 RMK A01 T00121047  RH  065%=      5-min Rain = 0
KAM2 071725Z 17004KT 01/M05 A3033 RMK A01 T00131046  RH  065%=      5-min Rain = 0
KAM2 071726Z 17003KT 01/M05 A3033 RMK A01 T00141047  RH  064%=      5-min Rain = 0
KAM2 071727Z 15003KT 01/M05 A3033 RMK A01 T00141046  RH  064%=      5-min Rain = 0
KAM2 071728Z 14003KT 01/M05 A3033 RMK A01 T00141046  RH  064%=      5-min Rain = 0
KAM2 071729Z 14002KT 02/M05 A3033 RMK A01 T00151046  RH  064%=      5-min Rain = 0
KAM2 071730Z 15002KT 02/M05 A3033 RMK A01 T00161046  RH  063%=      5-min Rain = 0
KAM2 071731Z 12001KT 02/M05 A3033 RMK A01 T00151047  RH  063%=      5-min Rain = 0
KAM2 071732Z 12002KT 02/M05 A3033 RMK A01 T00161046  RH  063%=      5-min Rain = 0
KAM2 071733Z 13001KT 02/M05 A3033 RMK A01 T00161047  RH  063%=      5-min Rain = 0
KAM2 071734Z 12002KT 02/M05 A3033 RMK A01 T00151047  RH  063%=      5-min Rain = 0
KAM2 071735Z 12002KT 02/M05 A3033 RMK A01 T00151047  RH  063%=      5-min Rain = 0
KAM2 071736Z 13002KT 02/M05 A3033 RMK A01 T00161046  RH  063%=      5-min Rain = 0
KAM2 071737Z 11003KT 02/M05 A3033 RMK A01 T00161047  RH  063%=      5-min Rain = 0
KAM2 071738Z 10003KT 02/M05 A3033 RMK A01 T00161047  RH  063%=      5-min Rain = 0
KAM2 071739Z 11004KT 02/M05 A3033 RMK A01 T00161047  RH  063%=      5-min Rain = 0
KAM2 071740Z 11002KT 02/M05 A3032 RMK A01 T00161047  RH  063%=      5-min Rain = 0
KAM2 071741Z 12002KT 02/M05 A3032 RMK A01 T00161046  RH  063%=      5-min Rain = 0
KAM2 071742Z 11004KT 02/M05 A3032 RMK A01 T00171046  RH  063%=      5-min Rain = 0
KAM2 071743Z 08003KT 02/M05 A3032 RMK A01 T00161048  RH  062%=      5-min Rain = 0
KAM2 071744Z 07002KT 01/M05 A3032 RMK A01 T00141050  RH  063%=      5-min Rain = 0
KAM2 071745Z 03002KT 01/M05 A3032 RMK A01 T00131049  RH  063%=      5-min Rain = 0
KAM2 071746Z 04003KT 01/M05 A3032 RMK A01 T00131048  RH  064%=      5-min Rain = 0
KAM2 071747Z 04002KT 01/M05 A3032 RMK A01 T00131048  RH  064%=      5-min Rain = 0
KAM2 071748Z 10001KT 01/M05 A3032 RMK A01 T00131048  RH  064%=      5-min Rain = 0
KAM2 071749Z 03002KT 01/M05 A3032 RMK A01 T00141047  RH  064%=      5-min Rain = 0
KAM2 071750Z 04001KT 02/M05 A3032 RMK A01 T00161045  RH  064%=      5-min Rain = 0
KAM2 071751Z 07002KT 02/M05 A3032 RMK A01 T00161046  RH  063%=      5-min Rain = 0
KAM2 071752Z 08000KT 02/M05 A3032 RMK A01 T00161046  RH  063%=      5-min Rain = 0
KAM2 071753Z 10001KT 02/M05 A3032 RMK A01 T00171046  RH  063%=      5-min Rain = 0
KAM2 071754Z 11002KT 02/M05 A3032 RMK A01 T00171047  RH  062%=      5-min Rain = 0
KAM2 071755Z 11001KT 02/M05 A3032 RMK A01 T00171047  RH  062%=      5-min Rain = 0
KAM2 071756Z 11003KT 02/M05 A3032 RMK A01 T00171046  RH  063%=      5-min Rain = 0
KAM2 071757Z 09002KT 02/M05 A3032 RMK A01 T00171048  RH  062%=      5-min Rain = 0
KAM2 071758Z 06001KT 02/M05 A3032 RMK A01 T00151049  RH  062%=      5-min Rain = 0
KAM2 071759Z 11000KT 01/M05 A3031 RMK A01 T00131049  RH  063%=      5-min Rain = 0
KAM2 071800Z 14002KT 01/M05 A3031 RMK A01 T00131049  RH  063%=      5-min Rain = 0
KAM2 071801Z 14002KT 01/M05 A3031 RMK A01 T00131048  RH  064%=      5-min Rain = 0
KAM2 071802Z 15003KT 01/M05 A3031 RMK A01 T00131048  RH  064%=      5-min Rain = 0
KAM2 071803Z 14002KT 01/M05 A3031 RMK A01 T00131048  RH  064%=      5-min Rain = 0
KAM2 071804Z 13001KT 01/M05 A3031 RMK A01 T00131048  RH  064%=      5-min Rain = 0
KAM2 071805Z 10002KT 01/M05 A3031 RMK A01 T00131048  RH  064%=      5-min Rain = 0
KAM2 071806Z 12002KT 01/M05 A3031 RMK A01 T00131048  RH  064%=      5-min Rain = 0
KAM2 071807Z 12002KT 01/M05 A303 RMK A01 T00141047  RH  064%=      5-min Rain = 0
KAM2 071808Z 14002KT 01/M05 A303 RMK A01 T00141047  RH  064%=      5-min Rain = 0
KAM2 071809Z 16002KT 01/M05 A303 RMK A01 T00141048  RH  063%=      5-min Rain = 0
KAM2 071810Z 11003KT 01/M05 A303 RMK A01 T00141047  RH  064%=      5-min Rain = 0
KAM2 071811Z 14002KT 01/M05 A303 RMK A01 T00141047  RH  064%=      5-min Rain = 0
KAM2 071812Z 15002KT 02/M05 A303 RMK A01 T00151047  RH  063%=      5-min Rain = 0
KAM2 071813Z 15003KT 02/M05 A303 RMK A01 T00151047  RH  063%=      5-min Rain = 0
KAM2 071814Z 17002KT 02/M05 A303 RMK A01 T00151048  RH  063%=      5-min Rain = 0
KAM2 071815Z 21000KT 01/M05 A303 RMK A01 T00141048  RH  063%=      5-min Rain = 0
KAM2 071816Z 12000KT 01/M05 A303 RMK A01 T00131048  RH  064%=      5-min Rain = 0
KAM2 071817Z 10001KT 01/M05 A303 RMK A01 T00131048  RH  064%=      5-min Rain = 0
KAM2 071818Z 16001KT 01/M05 A303 RMK A01 T00131047  RH  064%=      5-min Rain = 0
KAM2 071819Z 12001KT 01/M05 A303 RMK A01 T00131047  RH  064%=      5-min Rain = 0
KAM2 071820Z 10000KT 01/M05 A303 RMK A01 T00141047  RH  064%=      5-min Rain = 0
KAM2 071821Z 05000KT 01/M05 A3029 RMK A01 T00131048  RH  064%=      5-min Rain = 0
KAM2 071822Z 06003KT 01/M05 A3029 RMK A01 T00131048  RH  064%=      5-min Rain = 0
KAM2 071823Z 05003KT 01/M05 A3029 RMK A01 T00131047  RH  064%=      5-min Rain = 0
KAM2 071824Z 04002KT 01/M05 A3029 RMK A01 T00141048  RH  063%=      5-min Rain = 0
KAM2 071825Z 03002KT 01/M05 A3029 RMK A01 T00141048  RH  063%=      5-min Rain = 0
KAM2 071826Z 03003KT 01/M05 A3029 RMK A01 T00141048  RH  064%=      5-min Rain = 0
KAM2 071827Z 03002KT 01/M05 A3029 RMK A01 T00141047  RH  064%=      5-min Rain = 0
KAM2 071828Z 04001KT 01/M05 A3029 RMK A01 T00141048  RH  064%=      5-min Rain = 0
KAM2 071829Z 03001KT 01/M05 A3029 RMK A01 T00131048  RH  064%=      5-min Rain = 0
KAM2 071830Z 07000KT 01/M05 A3029 RMK A01 T00131048  RH  064%=      5-min Rain = 0
KAM2 071831Z 05000KT 01/M05 A3029 RMK A01 T00141047  RH  064%=      5-min Rain = 0
KAM2 071832Z 07002KT 01/M05 A3028 RMK A01 T00131048  RH  064%=      5-min Rain = 0
KAM2 071833Z 10002KT 01/M05 A3028 RMK A01 T00141047  RH  064%=      5-min Rain = 0
KAM2 071834Z 10002KT 01/M05 A3028 RMK A01 T00141047  RH  064%=      5-min Rain = 0
KAM2 071835Z 08004KT 01/M05 A3028 RMK A01 T00141046  RH  064%=      5-min Rain = 0
KAM2 071836Z 08003KT 02/M05 A3028 RMK A01 T00151046  RH  064%=      5-min Rain = 0
KAM2 071837Z 06002KT 01/M05 A3028 RMK A01 T00141047  RH  064%=      5-min Rain = 0
KAM2 071838Z 06003KT 01/M05 A3028 RMK A01 T00141046  RH  064%=      5-min Rain = 0
KAM2 071839Z 05003KT 01/M05 A3028 RMK A01 T00141045  RH  065%=      5-min Rain = 0
KAM2 071840Z 03002KT 01/M05 A3028 RMK A01 T00141046  RH  064%=      5-min Rain = 0
KAM2 071841Z 03002KT 01/M05 A3028 RMK A01 T00141046  RH  064%=      5-min Rain = 0
KAM2 071842Z 05003KT 01/M05 A3028 RMK A01 T00131046  RH  064%=      5-min Rain = 0
KAM2 071843Z 06003KT 01/M05 A3028 RMK A01 T00131045  RH  065%=      5-min Rain = 0
KAM2 071844Z 06003KT 01/M05 A3028 RMK A01 T00131045  RH  065%=      5-min Rain = 0
KAM2 071845Z 04002KT 01/M05 A3028 RMK A01 T00141045  RH  065%=      5-min Rain = 0
KAM2 071846Z 04004KT 01/M05 A3027 RMK A01 T00141045  RH  065%=      5-min Rain = 0
KAM2 071847Z 04003KT 01/M04 A3027 RMK A01 T00141044  RH  065%=      5-min Rain = 0
KAM2 071848Z 04003KT 01/M04 A3027 RMK A01 T00141044  RH  065%=      5-min Rain = 0
KAM2 071849Z 03002KT 01/M05 A3027 RMK A01 T00131045  RH  065%=      5-min Rain = 0
KAM2 071850Z 02001KT 01/M04 A3027 RMK A01 T00131044  RH  065%=      5-min Rain = 0
KAM2 071851Z 04001KT 01/M05 A3027 RMK A01 T00131045  RH  065%=      5-min Rain = 0
KAM2 071852Z 03002KT 01/M05 A3027 RMK A01 T00141045  RH  065%=      5-min Rain = 0
KAM2 071853Z 03002KT 01/M05 A3027 RMK A01 T00131046  RH  065%=      5-min Rain = 0
KAM2 071854Z 06002KT 01/M05 A3027 RMK A01 T00131046  RH  065%=      5-min Rain = 0
KAM2 071855Z 08003KT 01/M05 A3027 RMK A01 T00131045  RH  065%=      5-min Rain = 0
KAM2 071856Z 06002KT 01/M04 A3027 RMK A01 T00131044  RH  065%=      5-min Rain = 0
KAM2 071857Z 04002KT 02/M04 A3027 RMK A01 T00151044  RH  065%=      5-min Rain = 0
KAM2 071858Z 06002KT 02/M05 A3027 RMK A01 T00151045  RH  064%=      5-min Rain = 0
KAM2 071859Z 05002KT 02/M05 A3027 RMK A01 T00151045  RH  064%=      5-min Rain = 0
KAM2 071900Z 06003KT 02/M05 A3027 RMK A01 T00151045  RH  064%=      5-min Rain = 0
KAM2 071901Z 03003KT 02/M04 A3027 RMK A01 T00151044  RH  065%=      5-min Rain = 0
KAM2 071902Z 02003KT 02/M04 A3027 RMK A01 T00151044  RH  064%=      5-min Rain = 0
KAM2 071903Z 01003KT 02/M05 A3027 RMK A01 T00151045  RH  064%=      5-min Rain = 0
KAM2 071904Z 35003KT 02/M05 A3028 RMK A01 T00151046  RH  064%=      5-min Rain = 0
KAM2 071905Z 01003KT 02/M05 A3027 RMK A01 T00151046  RH  064%=      5-min Rain = 0
KAM2 071906Z 00003KT 02/M05 A3028 RMK A01 T00151046  RH  064%=      5-min Rain = 0
KAM2 071907Z 35002KT 02/M05 A3027 RMK A01 T00151046  RH  064%=      5-min Rain = 0
KAM2 071908Z 01001KT 02/M05 A3027 RMK A01 T00151045  RH  064%=      5-min Rain = 0
KAM2 071909Z 02001KT 02/M05 A3027 RMK A01 T00151046  RH  064%=      5-min Rain = 0
KAM2 071910Z 05003KT 02/M05 A3027 RMK A01 T00161045  RH  064%=      5-min Rain = 0
KAM2 071911Z 06003KT 02/M05 A3027 RMK A01 T00161046  RH  064%=      5-min Rain = 0
KAM2 071912Z 05002KT 02/M05 A3027 RMK A01 T00161045  RH  064%=      5-min Rain = 0
KAM2 071913Z 09001KT 02/M05 A3028 RMK A01 T00161045  RH  064%=      5-min Rain = 0
KAM2 071914Z 08002KT 02/M04 A3028 RMK A01 T00171043  RH  064%=      5-min Rain = 0
KAM2 071915Z 08002KT 02/M04 A3028 RMK A01 T00171044  RH  064%=      5-min Rain = 0
KAM2 071916Z 08003KT 02/M04 A3027 RMK A01 T00171043  RH  064%=      5-min Rain = 0
KAM2 071917Z 10003KT 02/M04 A3027 RMK A01 T00161041  RH  066%=      5-min Rain = 0
KAM2 071918Z 08002KT 02/M04 A3027 RMK A01 T00171036  RH  068%=      5-min Rain = 0
KAM2 071919Z 06003KT 02/M04 A3027 RMK A01 T00181037  RH  067%=      5-min Rain = 0
KAM2 071920Z 06003KT 02/M04 A3027 RMK A01 T00171040  RH  066%=      5-min Rain = 0
KAM2 071921Z 07004KT 02/M04 A3027 RMK A01 T00171037  RH  067%=      5-min Rain = 0
KAM2 071922Z 06003KT 02/M04 A3027 RMK A01 T00181037  RH  067%=      5-min Rain = 0
KAM2 071923Z 06002KT 02/M04 A3027 RMK A01 T00181039  RH  066%=      5-min Rain = 0
KAM2 071924Z 07001KT 02/M04 A3027 RMK A01 T00171042  RH  065%=      5-min Rain = 0
KAM2 071925Z 11000KT 02/M04 A3027 RMK A01 T00161043  RH  065%=      5-min Rain = 0
KAM2 071926Z 00000KT 02/M04 A3027 RMK A01 T00161043  RH  065%=      5-min Rain = 0
KAM2 071927Z 05001KT 02/M04 A3027 RMK A01 T00161041  RH  066%=      5-min Rain = 0
KAM2 071928Z 06002KT 02/M04 A3027 RMK A01 T00171037  RH  067%=      5-min Rain = 0
KAM2 071929Z 04001KT 02/M04 A3027 RMK A01 T00181039  RH  066%=      5-min Rain = 0
KAM2 071930Z 05001KT 02/M04 A3027 RMK A01 T00181041  RH  065%=      5-min Rain = 0
KAM2 071931Z 07002KT 02/M04 A3027 RMK A01 T00181040  RH  065%=      5-min Rain = 0
KAM2 071932Z 06002KT 02/M04 A3027 RMK A01 T00181041  RH  065%=      5-min Rain = 0
KAM2 071933Z 01002KT 02/M04 A3027 RMK A01 T00181040  RH  065%=      5-min Rain = 0
KAM2 071934Z 35001KT 02/M04 A3027 RMK A01 T00181040  RH  065%=      5-min Rain = 0
KAM2 071935Z 04001KT 02/M04 A3027 RMK A01 T00181043  RH  064%=      5-min Rain = 0
KAM2 071936Z 06003KT 02/M04 A3027 RMK A01 T00181040  RH  065%=      5-min Rain = 0
KAM2 071937Z 04005KT 02/M04 A3027 RMK A01 T00191038  RH  066%=      5-min Rain = 0
KAM2 071938Z 04003KT 02/M04 A3027 RMK A01 T00191041  RH  065%=      5-min Rain = 0
KAM2 071939Z 06003KT 02/M04 A3027 RMK A01 T00181041  RH  065%=      5-min Rain = 0
KAM2 071940Z 07002KT 02/M04 A3027 RMK A01 T00191039  RH  066%=      5-min Rain = 0
KAM2 071941Z 06002KT 02/M04 A3027 RMK A01 T00191040  RH  065%=      5-min Rain = 0
KAM2 071942Z 05002KT 02/M04 A3027 RMK A01 T00191042  RH  064%=      5-min Rain = 0
KAM2 071943Z 03003KT 02/M04 A3027 RMK A01 T00181042  RH  064%=      5-min Rain = 0
KAM2 071944Z 02002KT 02/M04 A3027 RMK A01 T00181042  RH  065%=      5-min Rain = 0
KAM2 071945Z 01002KT 02/M04 A3027 RMK A01 T00181042  RH  064%=      5-min Rain = 0
KAM2 071946Z 01002KT 02/M04 A3027 RMK A01 T00181042  RH  064%=      5-min Rain = 0
KAM2 071947Z 02003KT 02/M04 A3027 RMK A01 T00181041  RH  065%=      5-min Rain = 0
KAM2 071948Z 00005KT 02/M04 A3027 RMK A01 T00191040  RH  065%=      5-min Rain = 0
KAM2 071949Z 35005KT 02/M04 A3027 RMK A01 T00191040  RH  065%=      5-min Rain = 0
KAM2 071950Z 35004KT 02/M04 A3028 RMK A01 T00191041  RH  065%=      5-min Rain = 0
KAM2 071951Z 34005KT 02/M04 A3028 RMK A01 T00191041  RH  065%=      5-min Rain = 0
KAM2 071952Z 35005KT 02/M04 A3027 RMK A01 T00191040  RH  065%=      5-min Rain = 0
KAM2 071953Z 36004KT 02/M04 A3028 RMK A01 T00191039  RH  065%=      5-min Rain = 0
KAM2 071954Z 00007KT 02/M04 A3028 RMK A01 T00191039  RH  066%=      5-min Rain = 0
KAM2 071955Z 36007KT 02/M04 A3028 RMK A01 T00191037  RH  066%=      5-min Rain = 0
KAM2 071956Z 36007KT 02/M04 A3028 RMK A01 T00181036  RH  067%=      5-min Rain = 0
KAM2 071957Z 36006KT 02/M04 A3028 RMK A01 T00171035  RH  069%=      5-min Rain = 0
KAM2 071958Z 01007KT 02/M03 A3028 RMK A01 T00171033  RH  069%=      5-min Rain = 0
KAM2 071959Z 01008KT 02/M03 A3028 RMK A01 T00171034  RH  069%=      5-min Rain = 0
KAM2 072000Z 00008KT 02/M04 A3028 RMK A01 T00161035  RH  069%=      5-min Rain = 0
KAM2 072001Z 36007KT 02/M04 A3028 RMK A01 T00161035  RH  069%=      5-min Rain = 0
KAM2 072002Z 00008KT 02/M04 A3028 RMK A01 T00151035  RH  069%=      5-min Rain = 0
KAM2 072003Z 01007KT 02/M03 A3028 RMK A01 T00151034  RH  070%=      5-min Rain = 0
KAM2 072004Z 01007KT 02/M03 A3028 RMK A01 T00151034  RH  070%=      5-min Rain = 0
KAM2 072005Z 00006KT 01/M04 A3028 RMK A01 T00141035  RH  070%=      5-min Rain = 0
KAM2 072006Z 00006KT 01/M04 A3028 RMK A01 T00141035  RH  070%=      5-min Rain = 0
KAM2 072007Z 01005KT 01/M03 A3028 RMK A01 T00141033  RH  071%=      5-min Rain = 0
KAM2 072008Z 02005KT 01/M03 A3028 RMK A01 T00141030  RH  073%=      5-min Rain = 0
KAM2 072009Z 02006KT 01/M03 A3028 RMK A01 T00141027  RH  074%=      5-min Rain = 0
KAM2 072010Z 01006KT 01/M03 A3028 RMK A01 T00141029  RH  073%=      5-min Rain = 0
KAM2 072011Z 01005KT 01/M03 A3028 RMK A01 T00131029  RH  073%=      5-min Rain = 0
KAM2 072012Z 01006KT 01/M03 A3028 RMK A01 T00131028  RH  074%=      5-min Rain = 0
KAM2 072013Z 01006KT 01/M03 A3028 RMK A01 T00121026  RH  076%=      5-min Rain = 0
KAM2 072014Z 02004KT 01/M02 A3028 RMK A01 T00121021  RH  079%=      5-min Rain = 0
KAM2 072015Z 02005KT 01/M02 A3028 RMK A01 T00131019  RH  080%=      5-min Rain = 0
KAM2 072016Z 02006KT 01/M02 A3028 RMK A01 T00131021  RH  078%=      5-min Rain = 0
KAM2 072017Z 02004KT 01/M02 A3028 RMK A01 T00131023  RH  077%=      5-min Rain = 0
KAM2 072018Z 03005KT 01/M02 A3028 RMK A01 T00131021  RH  078%=      5-min Rain = 0
KAM2 072019Z 02006KT 01/M02 A3028 RMK A01 T00131021  RH  078%=      5-min Rain = 0
KAM2 072020Z 03006KT 01/M02 A3028 RMK A01 T00131024  RH  077%=      5-min Rain = 0
KAM2 072021Z 03006KT 01/M03 A3028 RMK A01 T00121026  RH  076%=      5-min Rain = 0
KAM2 072022Z 03005KT 01/M03 A3028 RMK A01 T00121025  RH  077%=      5-min Rain = 0
KAM2 072023Z 02004KT 01/M02 A3028 RMK A01 T00121022  RH  078%=      5-min Rain = 0
KAM2 072024Z 02006KT 01/M02 A3028 RMK A01 T00131020  RH  079%=      5-min Rain = 0
KAM2 072025Z 03006KT 01/M03 A3028 RMK A01 T00131025  RH  076%=      5-min Rain = 0
KAM2 072026Z 05004KT 01/M03 A3028 RMK A01 T00121028  RH  075%=      5-min Rain = 0
KAM2 072027Z 04005KT 01/M02 A3028 RMK A01 T00121024  RH  077%=      5-min Rain = 0
KAM2 072028Z 04005KT 01/M03 A3028 RMK A01 T00131025  RH  076%=      5-min Rain = 0
KAM2 072029Z 04004KT 01/M03 A3028 RMK A01 T00131026  RH  075%=      5-min Rain = 0
KAM2 072030Z 04006KT 01/M03 A3028 RMK A01 T00131026  RH  075%=      5-min Rain = 0
KAM2 072031Z 06005KT 01/M03 A3028 RMK A01 T00131026  RH  075%=      5-min Rain = 0
KAM2 072032Z 04005KT 01/M03 A3028 RMK A01 T00131025  RH  076%=      5-min Rain = 0
KAM2 072033Z 04005KT 01/M03 A3028 RMK A01 T00131026  RH  075%=      5-min Rain = 0
KAM2 072034Z 03004KT 01/M03 A3028 RMK A01 T00131027  RH  074%=      5-min Rain = 0
KAM2 072035Z 05004KT 01/M03 A3028 RMK A01 T00131026  RH  075%=      5-min Rain = 0
KAM2 072036Z 05004KT 01/M02 A3028 RMK A01 T00131024  RH  076%=      5-min Rain = 0
KAM2 072037Z 06003KT 01/M02 A3028 RMK A01 T00141023  RH  077%=      5-min Rain = 0
KAM2 072038Z 05004KT 01/M02 A3028 RMK A01 T00141019  RH  078%=      5-min Rain = 0
KAM2 072039Z 04004KT 02/M02 A3028 RMK A01 T00161015  RH  080%=      5-min Rain = 0
KAM2 072040Z 06004KT 02/M02 A3028 RMK A01 T00161018  RH  078%=      5-min Rain = 0
KAM2 072041Z 05004KT 02/M02 A3027 RMK A01 T00161023  RH  075%=      5-min Rain = 0
KAM2 072042Z 03004KT 02/M02 A3027 RMK A01 T00161021  RH  077%=      5-min Rain = 0
KAM2 072043Z 04005KT 02/M02 A3027 RMK A01 T00151022  RH  076%=      5-min Rain = 0
KAM2 072044Z 05006KT 02/M02 A3027 RMK A01 T00151020  RH  078%=      5-min Rain = 0
KAM2 072045Z 06004KT 02/M02 A3027 RMK A01 T00151021  RH  077%=      5-min Rain = 0
KAM2 072046Z 06004KT 02/M02 A3028 RMK A01 T00151020  RH  078%=      5-min Rain = 0
KAM2 072047Z 06003KT 02/M02 A3028 RMK A01 T00151019  RH  078%=      5-min Rain = 0
KAM2 072048Z 05003KT 02/M02 A3028 RMK A01 T00151020  RH  077%=      5-min Rain = 0
KAM2 072049Z 05004KT 02/M02 A3028 RMK A01 T00151018  RH  079%=      5-min Rain = 0
KAM2 072050Z 04004KT 02/M02 A3028 RMK A01 T00161018  RH  078%=      5-min Rain = 0
KAM2 072051Z 06004KT 02/M02 A3028 RMK A01 T00161018  RH  078%=      5-min Rain = 0
KAM2 072052Z 05003KT 02/M02 A3028 RMK A01 T00171019  RH  077%=      5-min Rain = 0
KAM2 072053Z 04003KT 02/M02 A3028 RMK A01 T00161019  RH  077%=      5-min Rain = 0
KAM2 072054Z 03004KT 02/M02 A3028 RMK A01 T00171019  RH  077%=      5-min Rain = 0
KAM2 072055Z 03005KT 02/M02 A3028 RMK A01 T00171020  RH  076%=      5-min Rain = 0
KAM2 072056Z 04004KT 02/M02 A3028 RMK A01 T00171020  RH  077%=      5-min Rain = 0
KAM2 072057Z 03005KT 02/M02 A3028 RMK A01 T00171019  RH  077%=      5-min Rain = 0
KAM2 072058Z 03005KT 02/M02 A3027 RMK A01 T00171021  RH  076%=      5-min Rain = 0
KAM2 072059Z 03005KT 02/M02 A3027 RMK A01 T00171023  RH  075%=      5-min Rain = 0
KAM2 072100Z 03005KT 02/M02 A3027 RMK A01 T00171023  RH  075%=      5-min Rain = 0
KAM2 072101Z 03005KT 02/M02 A3027 RMK A01 T00161022  RH  076%=      5-min Rain = 0
KAM2 072102Z 03004KT 02/M02 A3027 RMK A01 T00161024  RH  075%=      5-min Rain = 0
KAM2 072103Z 04004KT 02/M02 A3027 RMK A01 T00161024  RH  074%=      5-min Rain = 0
KAM2 072104Z 04005KT 02/M02 A3027 RMK A01 T00161024  RH  074%=      5-min Rain = 0
KAM2 072105Z 04004KT 02/M02 A3027 RMK A01 T00171024  RH  074%=      5-min Rain = 0
KAM2 072106Z 04004KT 02/M03 A3027 RMK A01 T00171025  RH  074%=      5-min Rain = 0
KAM2 072107Z 04004KT 02/M02 A3027 RMK A01 T00171024  RH  074%=      5-min Rain = 0
KAM2 072108Z 04003KT 02/M02 A3027 RMK A01 T00171024  RH  074%=      5-min Rain = 0
KAM2 072109Z 05004KT 02/M02 A3027 RMK A01 T00181024  RH  074%=      5-min Rain = 0
KAM2 072110Z 07003KT 02/M03 A3027 RMK A01 T00181026  RH  072%=      5-min Rain = 0
KAM2 072111Z 06003KT 02/M03 A3027 RMK A01 T00181027  RH  072%=      5-min Rain = 0
KAM2 072112Z 04004KT 02/M03 A3027 RMK A01 T00181026  RH  073%=      5-min Rain = 0
KAM2 072113Z 03004KT 02/M03 A3027 RMK A01 T00181025  RH  073%=      5-min Rain = 0
KAM2 072114Z 03003KT 02/M03 A3027 RMK A01 T00171026  RH  073%=      5-min Rain = 0
KAM2 072115Z 03002KT 02/M03 A3027 RMK A01 T00171026  RH  073%=      5-min Rain = 0
KAM2 072116Z 04003KT 02/M03 A3027 RMK A01 T00171025  RH  074%=      5-min Rain = 0
KAM2 072117Z 04003KT 02/M02 A3027 RMK A01 T00181023  RH  075%=      5-min Rain = 0
KAM2 072118Z 07004KT 02/M02 A3027 RMK A01 T00191023  RH  074%=      5-min Rain = 0
KAM2 072119Z 05003KT 02/M02 A3027 RMK A01 T00191022  RH  074%=      5-min Rain = 0
KAM2 072120Z 04003KT 02/M03 A3027 RMK A01 T00201025  RH  072%=      5-min Rain = 0
KAM2 072121Z 04002KT 02/M03 A3027 RMK A01 T00191029  RH  070%=      5-min Rain = 0
KAM2 072122Z 04001KT 02/M03 A3026 RMK A01 T00181030  RH  070%=      5-min Rain = 0
KAM2 072123Z 04002KT 02/M03 A3026 RMK A01 T00171031  RH  071%=      5-min Rain = 0
KAM2 072124Z 05003KT 02/M03 A3026 RMK A01 T00181027  RH  072%=      5-min Rain = 0
KAM2 072125Z 04003KT 02/M03 A3026 RMK A01 T00181026  RH  073%=      5-min Rain = 0
KAM2 072126Z 03002KT 02/M03 A3026 RMK A01 T00181028  RH  072%=      5-min Rain = 0
KAM2 072127Z 04004KT 02/M03 A3026 RMK A01 T00181027  RH  072%=      5-min Rain = 0
KAM2 072128Z 06005KT 02/M03 A3026 RMK A01 T00181027  RH  072%=      5-min Rain = 0
KAM2 072129Z 07004KT 02/M03 A3026 RMK A01 T00191027  RH  072%=      5-min Rain = 0
KAM2 072130Z 07004KT 02/M03 A3026 RMK A01 T00191028  RH  071%=      5-min Rain = 0
KAM2 072131Z 06003KT 02/M03 A3026 RMK A01 T00191030  RH  070%=      5-min Rain = 0
KAM2 072132Z 04002KT 02/M03 A3026 RMK A01 T00191029  RH  071%=      5-min Rain = 0
KAM2 072133Z 05004KT 02/M03 A3026 RMK A01 T00191028  RH  071%=      5-min Rain = 0
KAM2 072134Z 05003KT 02/M03 A3026 RMK A01 T00191029  RH  071%=      5-min Rain = 0
KAM2 072135Z 05002KT 02/M03 A3026 RMK A01 T00191030  RH  070%=      5-min Rain = 0
KAM2 072136Z 06001KT 02/M03 A3026 RMK A01 T00191029  RH  071%=      5-min Rain = 0
KAM2 072137Z 06003KT 02/M03 A3026 RMK A01 T00191028  RH  071%=      5-min Rain = 0
KAM2 072138Z 07004KT 02/M03 A3026 RMK A01 T00201027  RH  071%=      5-min Rain = 0
KAM2 072139Z 04003KT 02/M03 A3026 RMK A01 T00201029  RH  070%=      5-min Rain = 0
KAM2 072140Z 03002KT 02/M03 A3026 RMK A01 T00201029  RH  070%=      5-min Rain = 0
KAM2 072141Z 02002KT 02/M03 A3027 RMK A01 T00201031  RH  069%=      5-min Rain = 0
KAM2 072142Z 01003KT 02/M03 A3027 RMK A01 T00201029  RH  070%=      5-min Rain = 0
KAM2 072143Z 02002KT 02/M03 A3027 RMK A01 T00201028  RH  071%=      5-min Rain = 0
KAM2 072144Z 02004KT 02/M03 A3027 RMK A01 T00201028  RH  071%=      5-min Rain = 0
KAM2 072145Z 03004KT 02/M03 A3027 RMK A01 T00201027  RH  071%=      5-min Rain = 0
KAM2 072146Z 04004KT 02/M03 A3027 RMK A01 T00211026  RH  071%=      5-min Rain = 0
KAM2 072147Z 06002KT 02/M03 A3027 RMK A01 T00211028  RH  070%=      5-min Rain = 0
KAM2 072148Z 04003KT 02/M03 A3027 RMK A01 T00211029  RH  070%=      5-min Rain = 0
KAM2 072149Z 03004KT 02/M03 A3027 RMK A01 T00211027  RH  070%=      5-min Rain = 0
KAM2 072150Z 03003KT 02/M03 A3027 RMK A01 T00211025  RH  071%=      5-min Rain = 0
KAM2 072151Z 03003KT 02/M03 A3027 RMK A01 T00211026  RH  071%=      5-min Rain = 0
KAM2 072152Z 03005KT 02/M03 A3027 RMK A01 T00211027  RH  070%=      5-min Rain = 0
KAM2 072153Z 02004KT 02/M03 A3027 RMK A01 T00221027  RH  070%=      5-min Rain = 0
KAM2 072154Z 02003KT 02/M03 A3027 RMK A01 T00211028  RH  070%=      5-min Rain = 0
KAM2 072155Z 02002KT 02/M03 A3027 RMK A01 T00211028  RH  070%=      5-min Rain = 0
KAM2 072156Z 05003KT 02/M03 A3027 RMK A01 T00201028  RH  070%=      5-min Rain = 0
KAM2 072157Z 05004KT 02/M03 A3028 RMK A01 T00211028  RH  070%=      5-min Rain = 0
KAM2 072158Z 03004KT 02/M03 A3028 RMK A01 T00211027  RH  071%=      5-min Rain = 0
KAM2 072159Z 03004KT 02/M03 A3028 RMK A01 T00211029  RH  069%=      5-min Rain = 0
KAM2 072200Z 06004KT 02/M03 A3028 RMK A01 T00211028  RH  070%=      5-min Rain = 0
KAM2 072201Z 06004KT 02/M03 A3028 RMK A01 T00211028  RH  070%=      5-min Rain = 0
KAM2 072202Z 07003KT 02/M03 A3028 RMK A01 T00221029  RH  069%=      5-min Rain = 0
KAM2 072203Z 08003KT 02/M03 A3028 RMK A01 T00221030  RH  069%=      5-min Rain = 0
KAM2 072204Z 06002KT 02/M03 A3028 RMK A01 T00211028  RH  070%=      5-min Rain = 0
KAM2 072205Z 06002KT 02/M03 A3028 RMK A01 T00221028  RH  070%=      5-min Rain = 0
KAM2 072206Z 06003KT 02/M03 A3028 RMK A01 T00221028  RH  070%=      5-min Rain = 0
KAM2 072207Z 05004KT 02/M03 A3028 RMK A01 T00221029  RH  069%=      5-min Rain = 0
KAM2 072208Z 05004KT 02/M03 A3028 RMK A01 T00221029  RH  069%=      5-min Rain = 0
KAM2 072209Z 05003KT 02/M03 A3027 RMK A01 T00221030  RH  068%=      5-min Rain = 0
KAM2 072210Z 04003KT 02/M03 A3027 RMK A01 T00221030  RH  069%=      5-min Rain = 0
KAM2 072211Z 05002KT 02/M03 A3027 RMK A01 T00221030  RH  069%=      5-min Rain = 0
KAM2 072212Z 06002KT 02/M03 A3027 RMK A01 T00221030  RH  069%=      5-min Rain = 0
KAM2 072213Z 07004KT 02/M03 A3027 RMK A01 T00221029  RH  069%=      5-min Rain = 0
KAM2 072214Z 07004KT 02/M03 A3027 RMK A01 T00221030  RH  068%=      5-min Rain = 0
KAM2 072215Z 04003KT 02/M03 A3027 RMK A01 T00221030  RH  068%=      5-min Rain = 0
KAM2 072216Z 03003KT 02/M03 A3027 RMK A01 T00221028  RH  069%=      5-min Rain = 0
KAM2 072217Z 05004KT 02/M03 A3027 RMK A01 T00231027  RH  069%=      5-min Rain = 0
KAM2 072218Z 05004KT 02/M03 A3027 RMK A01 T00231029  RH  068%=      5-min Rain = 0
KAM2 072219Z 04005KT 02/M03 A3027 RMK A01 T00231030  RH  068%=      5-min Rain = 0
KAM2 072220Z 03005KT 02/M03 A3027 RMK A01 T00231029  RH  069%=      5-min Rain = 0
KAM2 072221Z 04005KT 02/M03 A3026 RMK A01 T00231029  RH  069%=      5-min Rain = 0
KAM2 072222Z 04005KT 02/M03 A3026 RMK A01 T00231029  RH  069%=      5-min Rain = 0
KAM2 072223Z 04006KT 02/M03 A3026 RMK A01 T00221029  RH  069%=      5-min Rain = 0
KAM2 072224Z 05005KT 02/M03 A3026 RMK A01 T00221029  RH  069%=      5-min Rain = 0
KAM2 072225Z 05005KT 02/M03 A3026 RMK A01 T00221029  RH  069%=      5-min Rain = 0
KAM2 072226Z 05005KT 02/M03 A3026 RMK A01 T00231029  RH  069%=      5-min Rain = 0
KAM2 072227Z 04005KT 02/M03 A3026 RMK A01 T00231029  RH  069%=      5-min Rain = 0
KAM2 072228Z 04005KT 02/M03 A3026 RMK A01 T00231028  RH  069%=      5-min Rain = 0
KAM2 072229Z 03005KT 02/M03 A3026 RMK A01 T00231027  RH  069%=      5-min Rain = 0
KAM2 072230Z 04007KT 02/M03 A3026 RMK A01 T00241027  RH  069%=      5-min Rain = 0
KAM2 072231Z 04006KT 02/M03 A3026 RMK A01 T00241027  RH  069%=      5-min Rain = 0
KAM2 072232Z 04006KT 02/M03 A3026 RMK A01 T00241028  RH  069%=      5-min Rain = 0
KAM2 072233Z 04006KT 02/M03 A3026 RMK A01 T00241028  RH  069%=      5-min Rain = 0
KAM2 072234Z 05007KT 02/M03 A3026 RMK A01 T00241028  RH  069%=      5-min Rain = 0
KAM2 072235Z 04007KT 02/M03 A3026 RMK A01 T00241028  RH  069%=      5-min Rain = 0
KAM2 072236Z 04006KT 02/M03 A3026 RMK A01 T00241028  RH  069%=      5-min Rain = 0
KAM2 072237Z 05005KT 02/M03 A3026 RMK A01 T00241027  RH  069%=      5-min Rain = 0
KAM2 072238Z 05006KT 03/M03 A3026 RMK A01 T00251027  RH  069%=      5-min Rain = 0
KAM2 072239Z 05005KT 03/M03 A3026 RMK A01 T00251028  RH  068%=      5-min Rain = 0
KAM2 072240Z 06007KT 02/M03 A3026 RMK A01 T00241027  RH  069%=      5-min Rain = 0
KAM2 072241Z 04008KT 03/M03 A3026 RMK A01 T00251027  RH  069%=      5-min Rain = 0
KAM2 072242Z 03007KT 03/M03 A3026 RMK A01 T00251028  RH  068%=      5-min Rain = 0
KAM2 072243Z 04007KT 02/M03 A3026 RMK A01 T00241027  RH  069%=      5-min Rain = 0
KAM2 072244Z 04006KT 02/M03 A3026 RMK A01 T00241027  RH  069%=      5-min Rain = 0
KAM2 072245Z 04006KT 02/M03 A3026 RMK A01 T00241026  RH  069%=      5-min Rain = 0
KAM2 072246Z 04008KT 02/M03 A3026 RMK A01 T00241027  RH  069%=      5-min Rain = 0
KAM2 072247Z 04007KT 02/M03 A3026 RMK A01 T00241027  RH  069%=      5-min Rain = 0
KAM2 072248Z 04007KT 02/M03 A3026 RMK A01 T00241027  RH  069%=      5-min Rain = 0
KAM2 072249Z 04006KT 02/M03 A3026 RMK A01 T00241027  RH  069%=      5-min Rain = 0
KAM2 072250Z 05006KT 02/M03 A3026 RMK A01 T00241027  RH  069%=      5-min Rain = 0
KAM2 072251Z 04006KT 02/M03 A3026 RMK A01 T00231028  RH  069%=      5-min Rain = 0
KAM2 072252Z 05007KT 02/M03 A3026 RMK A01 T00241027  RH  069%=      5-min Rain = 0
KAM2 072253Z 06006KT 02/M03 A3026 RMK A01 T00241027  RH  069%=      5-min Rain = 0
KAM2 072254Z 07007KT 02/M03 A3026 RMK A01 T00241028  RH  069%=      5-min Rain = 0
KAM2 072255Z 06007KT 02/M03 A3026 RMK A01 T00241029  RH  068%=      5-min Rain = 0
KAM2 072256Z 06007KT 02/M03 A3026 RMK A01 T00231029  RH  068%=      5-min Rain = 0
KAM2 072257Z 06007KT 02/M03 A3026 RMK A01 T00231029  RH  068%=      5-min Rain = 0
KAM2 072258Z 05006KT 02/M03 A3026 RMK A01 T00231029  RH  068%=      5-min Rain = 0
KAM2 072259Z 05008KT 02/M03 A3026 RMK A01 T00231029  RH  069%=      5-min Rain = 0
KAM2 072300Z 05008KT 02/M03 A3026 RMK A01 T00231029  RH  068%=      5-min Rain = 0
KAM2 072301Z 05006KT 02/M03 A3026 RMK A01 T00231030  RH  068%=      5-min Rain = 0
KAM2 072302Z 06008KT 02/M03 A3026 RMK A01 T00231031  RH  068%=      5-min Rain = 0
KAM2 072303Z 05006KT 02/M03 A3026 RMK A01 T00221032  RH  067%=      5-min Rain = 0
KAM2 072304Z 05006KT 02/M03 A3026 RMK A01 T00221031  RH  068%=      5-min Rain = 0
KAM2 072305Z 06007KT 02/M03 A3026 RMK A01 T00221031  RH  068%=      5-min Rain = 0
KAM2 072306Z 06007KT 02/M03 A3026 RMK A01 T00221032  RH  068%=      5-min Rain = 0
KAM2 072307Z 06007KT 02/M03 A3026 RMK A01 T00221032  RH  067%=      5-min Rain = 0
KAM2 072308Z 06006KT 02/M03 A3026 RMK A01 T00231031  RH  068%=      5-min Rain = 0
KAM2 072309Z 06005KT 02/M03 A3026 RMK A01 T00221031  RH  068%=      5-min Rain = 0
KAM2 072310Z 05007KT 02/M03 A3026 RMK A01 T00221030  RH  068%=      5-min Rain = 0
KAM2 072311Z 04008KT 02/M03 A3026 RMK A01 T00221032  RH  067%=      5-min Rain = 0
KAM2 072312Z 04008KT 02/M03 A3026 RMK A01 T00221034  RH  066%=      5-min Rain = 0
KAM2 072313Z 04007KT 02/M04 A3026 RMK A01 T00221035  RH  066%=      5-min Rain = 0
KAM2 072314Z 04006KT 02/M03 A3026 RMK A01 T00221034  RH  066%=      5-min Rain = 0
KAM2 072315Z 04006KT 02/M03 A3026 RMK A01 T00221033  RH  067%=      5-min Rain = 0
KAM2 072316Z 05008KT 02/M03 A3026 RMK A01 T00221033  RH  067%=      5-min Rain = 0
KAM2 072317Z 05007KT 02/M03 A3026 RMK A01 T00221034  RH  067%=      5-min Rain = 0
KAM2 072318Z 04007KT 02/M04 A3026 RMK A01 T00211035  RH  066%=      5-min Rain = 0
KAM2 072319Z 04006KT 02/M04 A3026 RMK A01 T00211035  RH  066%=      5-min Rain = 0
KAM2 072320Z 05008KT 02/M03 A3026 RMK A01 T00221034  RH  067%=      5-min Rain = 0
KAM2 072321Z 05008KT 02/M03 A3026 RMK A01 T00211034  RH  067%=      5-min Rain = 0
KAM2 072322Z 05008KT 02/M04 A3026 RMK A01 T00211035  RH  067%=      5-min Rain = 0
KAM2 072323Z 05007KT 02/M04 A3026 RMK A01 T00211035  RH  066%=      5-min Rain = 0
KAM2 072324Z 05005KT 02/M03 A3026 RMK A01 T00211034  RH  067%=      5-min Rain = 0
KAM2 072325Z 06007KT 02/M03 A3026 RMK A01 T00211034  RH  067%=      5-min Rain = 0
KAM2 072326Z 05007KT 02/M04 A3026 RMK A01 T00211035  RH  067%=      5-min Rain = 0
KAM2 072327Z 05007KT 02/M04 A3026 RMK A01 T00211035  RH  067%=      5-min Rain = 0
KAM2 072328Z 05007KT 02/M03 A3026 RMK A01 T00211034  RH  067%=      5-min Rain = 0
KAM2 072329Z 05006KT 02/M04 A3026 RMK A01 T00211035  RH  067%=      5-min Rain = 0
KAM2 072330Z 05007KT 02/M04 A3026 RMK A01 T00211035  RH  067%=      5-min Rain = 0
KAM2 072331Z 04006KT 02/M03 A3026 RMK A01 T00211034  RH  067%=      5-min Rain = 0
KAM2 072332Z 05007KT 02/M04 A3026 RMK A01 T00211035  RH  066%=      5-min Rain = 0
KAM2 072333Z 06007KT 02/M04 A3026 RMK A01 T00211035  RH  066%=      5-min Rain = 0
KAM2 072334Z 07007KT 02/M04 A3026 RMK A01 T00211035  RH  066%=      5-min Rain = 0
KAM2 072335Z 06008KT 02/M04 A3026 RMK A01 T00211036  RH  066%=      5-min Rain = 0
KAM2 072336Z 06007KT 02/M04 A3026 RMK A01 T00211036  RH  066%=      5-min Rain = 0
KAM2 072337Z 06006KT 02/M04 A3026 RMK A01 T00211036  RH  066%=      5-min Rain = 0
KAM2 072338Z 06007KT 02/M04 A3026 RMK A01 T00211035  RH  066%=      5-min Rain = 0
KAM2 072339Z 07007KT 02/M04 A3026 RMK A01 T00211035  RH  066%=      5-min Rain = 0
KAM2 072340Z 06006KT 02/M04 A3026 RMK A01 T00211035  RH  066%=      5-min Rain = 0
KAM2 072341Z 07005KT 02/M04 A3026 RMK A01 T00211035  RH  067%=      5-min Rain = 0
KAM2 072342Z 07005KT 02/M03 A3027 RMK A01 T00211034  RH  067%=      5-min Rain = 0
KAM2 072343Z 07007KT 02/M03 A3027 RMK A01 T00211034  RH  067%=      5-min Rain = 0
KAM2 072344Z 08007KT 02/M03 A3027 RMK A01 T00211034  RH  067%=      5-min Rain = 0
KAM2 072345Z 08007KT 02/M04 A3027 RMK A01 T00211035  RH  067%=      5-min Rain = 0
KAM2 072346Z 07007KT 02/M04 A3027 RMK A01 T00211035  RH  066%=      5-min Rain = 0
KAM2 072347Z 06009KT 02/M04 A3027 RMK A01 T00201035  RH  066%=      5-min Rain = 0
KAM2 072348Z 06007KT 02/M04 A3027 RMK A01 T00201036  RH  066%=      5-min Rain = 0
KAM2 072349Z 07006KT 02/M04 A3027 RMK A01 T00211036  RH  066%=      5-min Rain = 0
KAM2 072350Z 07007KT 02/M04 A3027 RMK A01 T00201035  RH  067%=      5-min Rain = 0
KAM2 072351Z 07007KT 02/M04 A3027 RMK A01 T00211035  RH  067%=      5-min Rain = 0
KAM2 072352Z 07007KT 02/M04 A3027 RMK A01 T00211035  RH  067%=      5-min Rain = 0
KAM2 072353Z 07005KT 02/M03 A3027 RMK A01 T00211034  RH  067%=      5-min Rain = 0
KAM2 072354Z 07007KT 02/M03 A3027 RMK A01 T00211034  RH  067%=      5-min Rain = 0
KAM2 072355Z 08008KT 02/M03 A3027 RMK A01 T00211034  RH  067%=      5-min Rain = 0
KAM2 072356Z 08008KT 02/M04 A3027 RMK A01 T00201035  RH  067%=      5-min Rain = 0
KAM2 072357Z 08007KT 02/M04 A3027 RMK A01 T00211035  RH  067%=      5-min Rain = 0
KAM2 072358Z 09006KT 02/M03 A3027 RMK A01 T00211034  RH  067%=      5-min Rain = 0
KAM2 072359Z 08006KT 02/M03 A3027 RMK A01 T00201034  RH  067%=      5-min Rain = 0
KAM2 080000Z 08006KT 02/M03 A3027 RMK A01 T00211034  RH  067%=      5-min Rain = 0
KAM2 080001Z 07006KT 02/M03 A3027 RMK A01 T00211034  RH  067%=      5-min Rain = 0
KAM2 080002Z 07007KT 02/M03 A3027 RMK A01 T00211034  RH  067%=      5-min Rain = 0
KAM2 080003Z 08006KT 02/M03 A3027 RMK A01 T00201034  RH  067%=      5-min Rain = 0
KAM2 080004Z 07005KT 02/M03 A3027 RMK A01 T00211034  RH  067%=      5-min Rain = 0
KAM2 080005Z 08006KT 02/M03 A3027 RMK A01 T00211033  RH  068%=      5-min Rain = 0
KAM2 080006Z 08006KT 02/M03 A3027 RMK A01 T00211033  RH  068%=      5-min Rain = 0
KAM2 080007Z 08006KT 02/M03 A3027 RMK A01 T00211032  RH  068%=      5-min Rain = 0
KAM2 080008Z 08004KT 02/M03 A3027 RMK A01 T00211031  RH  068%=      5-min Rain = 0
KAM2 080009Z 08006KT 02/M03 A3027 RMK A01 T00211032  RH  068%=      5-min Rain = 0
KAM2 080010Z 08007KT 02/M03 A3027 RMK A01 T00211033  RH  068%=      5-min Rain = 0
KAM2 080011Z 08007KT 02/M03 A3027 RMK A01 T00211034  RH  067%=      5-min Rain = 0
KAM2 080012Z 07006KT 02/M03 A3027 RMK A01 T00211034  RH  067%=      5-min Rain = 0
KAM2 080013Z 08007KT 02/M03 A3027 RMK A01 T00211033  RH  068%=      5-min Rain = 0
KAM2 080014Z 07007KT 02/M03 A3027 RMK A01 T00211033  RH  068%=      5-min Rain = 0
KAM2 080015Z 07008KT 02/M03 A3027 RMK A01 T00201034  RH  067%=      5-min Rain = 0
KAM2 080016Z 07007KT 02/M03 A3027 RMK A01 T00211034  RH  067%=      5-min Rain = 0
KAM2 080017Z 08005KT 02/M03 A3027 RMK A01 T00201034  RH  067%=      5-min Rain = 0
KAM2 080018Z 07005KT 02/M03 A3027 RMK A01 T00201034  RH  067%=      5-min Rain = 0
KAM2 080019Z 07006KT 02/M03 A3027 RMK A01 T00201034  RH  067%=      5-min Rain = 0
KAM2 080020Z 08007KT 02/M03 A3027 RMK A01 T00201034  RH  068%=      5-min Rain = 0
KAM2 080021Z 07007KT 02/M03 A3027 RMK A01 T00201034  RH  067%=      5-min Rain = 0
KAM2 080022Z 07006KT 02/M04 A3027 RMK A01 T00201035  RH  067%=      5-min Rain = 0
KAM2 080023Z 07008KT 02/M03 A3027 RMK A01 T00201034  RH  067%=      5-min Rain = 0
KAM2 080024Z 07008KT 02/M04 A3027 RMK A01 T00201035  RH  067%=      5-min Rain = 0
KAM2 080025Z 08005KT 02/M04 A3027 RMK A01 T00201035  RH  067%=      5-min Rain = 0
KAM2 080026Z 07005KT 02/M03 A3027 RMK A01 T00201034  RH  068%=      5-min Rain = 0
KAM2 080027Z 08005KT 02/M03 A3027 RMK A01 T00201033  RH  068%=      5-min Rain = 0
KAM2 080028Z 08007KT 02/M03 A3027 RMK A01 T00191034  RH  068%=      5-min Rain = 0
KAM2 080029Z 08008KT 02/M03 A3027 RMK A01 T00201034  RH  068%=      5-min Rain = 0
KAM2 080030Z 08008KT 02/M04 A3027 RMK A01 T00201035  RH  067%=      5-min Rain = 0
KAM2 080031Z 08007KT 02/M04 A3027 RMK A01 T00191036  RH  067%=      5-min Rain = 0
KAM2 080032Z 08007KT 02/M04 A3027 RMK A01 T00201035  RH  067%=      5-min Rain = 0
KAM2 080033Z 07007KT 02/M04 A3027 RMK A01 T00201035  RH  067%=      5-min Rain = 0
KAM2 080034Z 07008KT 02/M04 A3027 RMK A01 T00201035  RH  067%=      5-min Rain = 0
KAM2 080035Z 07008KT 02/M04 A3027 RMK A01 T00191036  RH  067%=      5-min Rain = 0
KAM2 080036Z 07008KT 02/M04 A3027 RMK A01 T00201036  RH  067%=      5-min Rain = 0
KAM2 080037Z 07008KT 02/M04 A3027 RMK A01 T00191036  RH  067%=      5-min Rain = 0
KAM2 080038Z 07006KT 02/M04 A3027 RMK A01 T00191036  RH  067%=      5-min Rain = 0
KAM2 080039Z 07007KT 02/M04 A3027 RMK A01 T00201035  RH  067%=      5-min Rain = 0
KAM2 080040Z 07006KT 02/M04 A3027 RMK A01 T00201035  RH  067%=      5-min Rain = 0
KAM2 080041Z 07007KT 02/M04 A3027 RMK A01 T00201035  RH  067%=      5-min Rain = 0
KAM2 080042Z 06006KT 02/M04 A3027 RMK A01 T00201035  RH  067%=      5-min Rain = 0
KAM2 080043Z 06006KT 02/M03 A3027 RMK A01 T00201034  RH  067%=      5-min Rain = 0
KAM2 080044Z 07006KT 02/M03 A3027 RMK A01 T00201034  RH  067%=      5-min Rain = 0
KAM2 080045Z 06007KT 02/M03 A3027 RMK A01 T00201034  RH  067%=      5-min Rain = 0
KAM2 080046Z 07006KT 02/M04 A3027 RMK A01 T00201035  RH  067%=      5-min Rain = 0
KAM2 080047Z 06006KT 02/M04 A3027 RMK A01 T00201035  RH  067%=      5-min Rain = 0
KAM2 080048Z 07006KT 02/M03 A3027 RMK A01 T00201034  RH  067%=      5-min Rain = 0
KAM2 080049Z 07006KT 02/M04 A3027 RMK A01 T00191035  RH  067%=      5-min Rain = 0
KAM2 080050Z 08005KT 02/M03 A3027 RMK A01 T00201034  RH  067%=      5-min Rain = 0
KAM2 080051Z 08006KT 02/M03 A3027 RMK A01 T00201034  RH  067%=      5-min Rain = 0
KAM2 080052Z 07006KT 02/M04 A3027 RMK A01 T00201035  RH  067%=      5-min Rain = 0
KAM2 080053Z 08006KT 02/M04 A3027 RMK A01 T00191036  RH  067%=      5-min Rain = 0
KAM2 080054Z 07006KT 02/M04 A3027 RMK A01 T00201035  RH  067%=      5-min Rain = 0
KAM2 080055Z 07006KT 02/M04 A3027 RMK A01 T00201035  RH  067%=      5-min Rain = 0
KAM2 080056Z 07006KT 02/M04 A3027 RMK A01 T00201035  RH  067%=      5-min Rain = 0
KAM2 080057Z 07006KT 02/M04 A3027 RMK A01 T00191036  RH  067%=      5-min Rain = 0
KAM2 080058Z 07006KT 02/M04 A3027 RMK A01 T00191036  RH  067%=      5-min Rain = 0
KAM2 080059Z 07006KT 02/M04 A3027 RMK A01 T00201035  RH  067%=      5-min Rain = 0
KAM2 080100Z 07007KT 02/M04 A3027 RMK A01 T00191036  RH  067%=      5-min Rain = 0
KAM2 080101Z 07007KT 02/M04 A3027 RMK A01 T00201036  RH  066%=      5-min Rain = 0
KAM2 080102Z 07006KT 02/M04 A3026 RMK A01 T00201036  RH  067%=      5-min Rain = 0
KAM2 080103Z 07007KT 02/M04 A3026 RMK A01 T00201036  RH  067%=      5-min Rain = 0
KAM2 080104Z 07007KT 02/M04 A3026 RMK A01 T00191037  RH  067%=      5-min Rain = 0
KAM2 080105Z 08006KT 02/M04 A3026 RMK A01 T00191037  RH  067%=      5-min Rain = 0
KAM2 080106Z 07006KT 02/M04 A3026 RMK A01 T00191037  RH  067%=      5-min Rain = 0
KAM2 080107Z 07007KT 02/M04 A3026 RMK A01 T00191036  RH  067%=      5-min Rain = 0
KAM2 080108Z 08005KT 02/M04 A3026 RMK A01 T00191037  RH  067%=      5-min Rain = 0
KAM2 080109Z 07004KT 02/M04 A3026 RMK A01 T00191036  RH  067%=      5-min Rain = 0
KAM2 080110Z 07006KT 02/M04 A3026 RMK A01 T00191035  RH  067%=      5-min Rain = 0
KAM2 080111Z 07005KT 02/M04 A3026 RMK A01 T00191036  RH  067%=      5-min Rain = 0
KAM2 080112Z 07006KT 02/M04 A3026 RMK A01 T00181036  RH  067%=      5-min Rain = 0
KAM2 080113Z 07005KT 02/M04 A3026 RMK A01 T00181036  RH  067%=      5-min Rain = 0
KAM2 080114Z 06005KT 02/M04 A3026 RMK A01 T00181036  RH  067%=      5-min Rain = 0
KAM2 080115Z 06004KT 02/M04 A3026 RMK A01 T00181035  RH  068%=      5-min Rain = 0
KAM2 080116Z 05005KT 02/M04 A3026 RMK A01 T00181036  RH  068%=      5-min Rain = 0
KAM2 080117Z 06006KT 02/M04 A3027 RMK A01 T00181036  RH  068%=      5-min Rain = 0
KAM2 080118Z 06005KT 02/M04 A3027 RMK A01 T00181036  RH  068%=      5-min Rain = 0
KAM2 080119Z 05004KT 02/M04 A3027 RMK A01 T00171036  RH  067%=      5-min Rain = 0
KAM2 080120Z 06004KT 02/M04 A3027 RMK A01 T00171036  RH  068%=      5-min Rain = 0
KAM2 080121Z 06005KT 02/M04 A3027 RMK A01 T00171036  RH  068%=      5-min Rain = 0
KAM2 080122Z 06005KT 02/M04 A3027 RMK A01 T00171036  RH  068%=      5-min Rain = 0
KAM2 080123Z 06004KT 02/M04 A3027 RMK A01 T00171037  RH  068%=      5-min Rain = 0
KAM2 080124Z 07003KT 02/M04 A3027 RMK A01 T00161037  RH  068%=      5-min Rain = 0
KAM2 080125Z 06003KT 02/M04 A3027 RMK A01 T00161036  RH  068%=      5-min Rain = 0
KAM2 080126Z 05004KT 02/M04 A3028 RMK A01 T00161037  RH  068%=      5-min Rain = 0
KAM2 080127Z 05004KT 02/M04 A3028 RMK A01 T00161036  RH  068%=      5-min Rain = 0
KAM2 080128Z 05003KT 02/M04 A3028 RMK A01 T00161036  RH  068%=      5-min Rain = 0
KAM2 080129Z 06003KT 02/M04 A3028 RMK A01 T00151037  RH  068%=      5-min Rain = 0
KAM2 080130Z 06003KT 02/M04 A3028 RMK A01 T00151036  RH  068%=      5-min Rain = 0
KAM2 080131Z 06002KT 02/M04 A3028 RMK A01 T00151037  RH  068%=      5-min Rain = 0
KAM2 080132Z 06002KT 02/M04 A3028 RMK A01 T00151036  RH  069%=      5-min Rain = 0
KAM2 080133Z 05002KT 02/M04 A3028 RMK A01 T00151036  RH  069%=      5-min Rain = 0
KAM2 080134Z 06002KT 01/M04 A3028 RMK A01 T00141036  RH  069%=      5-min Rain = 0
KAM2 080135Z 05002KT 01/M04 A3028 RMK A01 T00141037  RH  069%=      5-min Rain = 0
KAM2 080136Z 06003KT 01/M04 A3028 RMK A01 T00141037  RH  069%=      5-min Rain = 0
KAM2 080137Z 06003KT 01/M04 A3028 RMK A01 T00141036  RH  069%=      5-min Rain = 0
KAM2 080138Z 05002KT 01/M04 A3028 RMK A01 T00141036  RH  069%=      5-min Rain = 0
KAM2 080139Z 06002KT 01/M04 A3028 RMK A01 T00141036  RH  070%=      5-min Rain = 0
KAM2 080140Z 06003KT 01/M04 A3029 RMK A01 T00131036  RH  070%=      5-min Rain = 0
KAM2 080141Z 06003KT 01/M04 A3029 RMK A01 T00131036  RH  070%=      5-min Rain = 0
KAM2 080142Z 06003KT 01/M04 A3029 RMK A01 T00131036  RH  070%=      5-min Rain = 0
KAM2 080143Z 06003KT 01/M04 A3029 RMK A01 T00121036  RH  070%=      5-min Rain = 0
KAM2 080144Z 06003KT 01/M04 A3029 RMK A01 T00121036  RH  070%=      5-min Rain = 0
KAM2 080145Z 06003KT 01/M04 A3029 RMK A01 T00121035  RH  071%=      5-min Rain = 0
KAM2 080146Z 06003KT 01/M04 A3029 RMK A01 T00121035  RH  071%=      5-min Rain = 0
KAM2 080147Z 06003KT 01/M04 A3029 RMK A01 T00121035  RH  071%=      5-min Rain = 0
KAM2 080148Z 06003KT 01/M04 A3029 RMK A01 T00121035  RH  071%=      5-min Rain = 0
KAM2 080149Z 06003KT 01/M04 A3029 RMK A01 T00121035  RH  071%=      5-min Rain = 0
KAM2 080150Z 06003KT 01/M03 A3029 RMK A01 T00131034  RH  071%=      5-min Rain = 0
KAM2 080151Z 06003KT 01/M03 A3029 RMK A01 T00131034  RH  071%=      5-min Rain = 0
KAM2 080152Z 07002KT 01/M03 A3029 RMK A01 T00131034  RH  071%=      5-min Rain = 0
KAM2 080153Z 07002KT 01/M03 A3029 RMK A01 T00131034  RH  071%=      5-min Rain = 0
KAM2 080154Z 07003KT 01/M03 A3029 RMK A01 T00131034  RH  071%=      5-min Rain = 0
KAM2 080155Z 07002KT 01/M03 A303 RMK A01 T00131034  RH  071%=      5-min Rain = 0
KAM2 080156Z 07003KT 01/M03 A303 RMK A01 T00131034  RH  071%=      5-min Rain = 0
KAM2 080157Z 07003KT 01/M03 A3029 RMK A01 T00131033  RH  071%=      5-min Rain = 0
KAM2 080158Z 07003KT 01/M03 A3029 RMK A01 T00141033  RH  071%=      5-min Rain = 0
KAM2 080159Z 07003KT 01/M03 A3029 RMK A01 T00141033  RH  071%=      5-min Rain = 0
KAM2 080200Z 07003KT 01/M03 A3029 RMK A01 T00141033  RH  071%=      5-min Rain = 0
KAM2 080201Z 07003KT 01/M03 A303 RMK A01 T00141033  RH  071%=      5-min Rain = 0
KAM2 080202Z 08003KT 01/M03 A303 RMK A01 T00141033  RH  071%=      5-min Rain = 0
KAM2 080203Z 07004KT 01/M03 A303 RMK A01 T00141033  RH  071%=      5-min Rain = 0
KAM2 080204Z 07004KT 01/M03 A303 RMK A01 T00141033  RH  071%=      5-min Rain = 0
KAM2 080205Z 07005KT 01/M03 A303 RMK A01 T00141034  RH  071%=      5-min Rain = 0
KAM2 080206Z 07004KT 02/M03 A303 RMK A01 T00151033  RH  071%=      5-min Rain = 0
KAM2 080207Z 07004KT 02/M03 A303 RMK A01 T00151033  RH  071%=      5-min Rain = 0
KAM2 080208Z 07004KT 01/M03 A303 RMK A01 T00141033  RH  071%=      5-min Rain = 0
KAM2 080209Z 07003KT 02/M03 A303 RMK A01 T00151033  RH  071%=      5-min Rain = 0
KAM2 080210Z 08004KT 02/M03 A303 RMK A01 T00151032  RH  071%=      5-min Rain = 0
KAM2 080211Z 09004KT 01/M03 A303 RMK A01 T00141032  RH  071%=      5-min Rain = 0
KAM2 080212Z 08004KT 01/M03 A303 RMK A01 T00141033  RH  071%=      5-min Rain = 0
KAM2 080213Z 08004KT 02/M03 A303 RMK A01 T00151032  RH  071%=      5-min Rain = 0
KAM2 080214Z 09005KT 02/M03 A303 RMK A01 T00151032  RH  071%=      5-min Rain = 0
KAM2 080215Z 08005KT 02/M03 A303 RMK A01 T00151033  RH  071%=      5-min Rain = 0
KAM2 080216Z 09004KT 02/M03 A303 RMK A01 T00151033  RH  070%=      5-min Rain = 0
KAM2 080217Z 09004KT 02/M03 A303 RMK A01 T00151033  RH  070%=      5-min Rain = 0
KAM2 080218Z 09003KT 02/M03 A303 RMK A01 T00151032  RH  071%=      5-min Rain = 0
KAM2 080219Z 10004KT 02/M03 A303 RMK A01 T00151032  RH  071%=      5-min Rain = 0
KAM2 080220Z 09004KT 02/M03 A303 RMK A01 T00161031  RH  071%=      5-min Rain = 0
KAM2 080221Z 10005KT 02/M03 A303 RMK A01 T00151032  RH  071%=      5-min Rain = 0
KAM2 080222Z 10006KT 02/M03 A303 RMK A01 T00161032  RH  070%=      5-min Rain = 0
KAM2 080223Z 09005KT 02/M03 A303 RMK A01 T00161033  RH  070%=      5-min Rain = 0
KAM2 080224Z 09005KT 02/M03 A3031 RMK A01 T00161033  RH  070%=      5-min Rain = 0
KAM2 080225Z 09005KT 02/M03 A3031 RMK A01 T00161034  RH  069%=      5-min Rain = 0
KAM2 080226Z 09004KT 02/M03 A3031 RMK A01 T00171033  RH  069%=      5-min Rain = 0
KAM2 080227Z 10005KT 02/M03 A3031 RMK A01 T00171033  RH  069%=      5-min Rain = 0
KAM2 080228Z 10006KT 02/M03 A3031 RMK A01 T00161034  RH  069%=      5-min Rain = 0
KAM2 080229Z 09007KT 02/M04 A3031 RMK A01 T00161035  RH  069%=      5-min Rain = 0
KAM2 080230Z 09006KT 02/M04 A3031 RMK A01 T00161036  RH  068%=      5-min Rain = 0
KAM2 080231Z 10007KT 02/M04 A3031 RMK A01 T00161036  RH  068%=      5-min Rain = 0
KAM2 080232Z 09005KT 02/M04 A3031 RMK A01 T00161036  RH  068%=      5-min Rain = 0
KAM2 080233Z 08005KT 02/M04 A3031 RMK A01 T00161036  RH  068%=      5-min Rain = 0
KAM2 080234Z 08005KT 02/M04 A303 RMK A01 T00161035  RH  069%=      5-min Rain = 0
KAM2 080235Z 08005KT 02/M04 A303 RMK A01 T00171036  RH  068%=      5-min Rain = 0
KAM2 080236Z 08006KT 02/M04 A303 RMK A01 T00161037  RH  068%=      5-min Rain = 0
KAM2 080237Z 08006KT 02/M04 A303 RMK A01 T00161038  RH  067%=      5-min Rain = 0
KAM2 080238Z 08007KT 02/M04 A303 RMK A01 T00151039  RH  067%=      5-min Rain = 0
KAM2 080239Z 08008KT 02/M04 A303 RMK A01 T00161039  RH  067%=      5-min Rain = 0
KAM2 080240Z 08007KT 02/M04 A303 RMK A01 T00151039  RH  067%=      5-min Rain = 0
KAM2 080241Z 08007KT 02/M04 A303 RMK A01 T00151039  RH  067%=      5-min Rain = 0
KAM2 080242Z 08006KT 02/M04 A303 RMK A01 T00151039  RH  067%=      5-min Rain = 0
KAM2 080243Z 08007KT 02/M04 A303 RMK A01 T00151038  RH  068%=      5-min Rain = 0
KAM2 080244Z 08008KT 02/M04 A3031 RMK A01 T00151038  RH  068%=      5-min Rain = 0
KAM2 080245Z 09007KT 02/M04 A3031 RMK A01 T00151039  RH  068%=      5-min Rain = 0
KAM2 080246Z 09006KT 02/M04 A3031 RMK A01 T00151039  RH  068%=      5-min Rain = 0
KAM2 080247Z 08006KT 02/M04 A3031 RMK A01 T00151038  RH  068%=      5-min Rain = 0
KAM2 080248Z 08008KT 01/M04 A3031 RMK A01 T00141038  RH  068%=      5-min Rain = 0
KAM2 080249Z 09009KT 01/M04 A3031 RMK A01 T00141039  RH  068%=      5-min Rain = 0
KAM2 080250Z 08007KT 01/M04 A3031 RMK A01 T00141039  RH  068%=      5-min Rain = 0
KAM2 080251Z 08008KT 01/M04 A3031 RMK A01 T00141039  RH  068%=      5-min Rain = 0
KAM2 080252Z 08007KT 01/M04 A3031 RMK A01 T00141039  RH  068%=      5-min Rain = 0
KAM2 080253Z 08006KT 01/M04 A3031 RMK A01 T00141039  RH  068%=      5-min Rain = 0
KAM2 080254Z 08008KT 01/M04 A3031 RMK A01 T00141039  RH  068%=      5-min Rain = 0
KAM2 080255Z 08007KT 01/M04 A3031 RMK A01 T00141039  RH  068%=      5-min Rain = 0
KAM2 080256Z 08008KT 01/M04 A3031 RMK A01 T00131039  RH  068%=      5-min Rain = 0
KAM2 080257Z 08009KT 01/M04 A3031 RMK A01 T00131039  RH  068%=      5-min Rain = 0
KAM2 080258Z 08010KT 01/M04 A3031 RMK A01 T00131040  RH  068%=      5-min Rain = 0
KAM2 080259Z 08008KT 01/M04 A3031 RMK A01 T00131040  RH  068%=      5-min Rain = 0
KAM2 080300Z 08007KT 01/M04 A3031 RMK A01 T00121039  RH  068%=      5-min Rain = 0
KAM2 080301Z 08007KT 01/M04 A3031 RMK A01 T00121039  RH  069%=      5-min Rain = 0
KAM2 080302Z 08007KT 01/M04 A3031 RMK A01 T00121039  RH  069%=      5-min Rain = 0
KAM2 080303Z 08009KT 01/M04 A3031 RMK A01 T00121039  RH  068%=      5-min Rain = 0
KAM2 080304Z 08009KT 01/M04 A3031 RMK A01 T00121040  RH  068%=      5-min Rain = 0
KAM2 080305Z 09006KT 01/M04 A3031 RMK A01 T00121040  RH  068%=      5-min Rain = 0
KAM2 080306Z 09007KT 01/M04 A3031 RMK A01 T00121039  RH  069%=      5-min Rain = 0
KAM2 080307Z 08005KT 01/M04 A3031 RMK A01 T00121038  RH  069%=      5-min Rain = 0
KAM2 080308Z 08007KT 01/M04 A3031 RMK A01 T00121038  RH  069%=      5-min Rain = 0
KAM2 080309Z 08008KT 01/M04 A3031 RMK A01 T00121040  RH  068%=      5-min Rain = 0
KAM2 080310Z 08008KT 01/M04 A3031 RMK A01 T00121041  RH  068%=      5-min Rain = 0
KAM2 080311Z 09008KT 01/M04 A3031 RMK A01 T00121041  RH  068%=      5-min Rain = 0
KAM2 080312Z 08007KT 01/M04 A3031 RMK A01 T00121041  RH  068%=      5-min Rain = 0
KAM2 080313Z 08006KT 01/M04 A3031 RMK A01 T00111041  RH  068%=      5-min Rain = 0
KAM2 080314Z 08005KT 01/M04 A3031 RMK A01 T00111041  RH  068%=      5-min Rain = 0
KAM2 080315Z 08006KT 01/M04 A3031 RMK A01 T00111041  RH  068%=      5-min Rain = 0
KAM2 080316Z 08006KT 01/M04 A3032 RMK A01 T00111041  RH  068%=      5-min Rain = 0
KAM2 080317Z 08006KT 01/M04 A3032 RMK A01 T00121040  RH  069%=      5-min Rain = 0
KAM2 080318Z 08006KT 01/M04 A3032 RMK A01 T00111040  RH  069%=      5-min Rain = 0
KAM2 080319Z 08006KT 01/M04 A3032 RMK A01 T00121040  RH  068%=      5-min Rain = 0
KAM2 080320Z 09008KT 01/M04 A3032 RMK A01 T00121041  RH  068%=      5-min Rain = 0
KAM2 080321Z 08008KT 01/M04 A3032 RMK A01 T00111041  RH  068%=      5-min Rain = 0
KAM2 080322Z 09009KT 01/M04 A3032 RMK A01 T00121041  RH  068%=      5-min Rain = 0
KAM2 080323Z 09007KT 01/M04 A3032 RMK A01 T00111041  RH  068%=      5-min Rain = 0
KAM2 080324Z 09007KT 01/M04 A3032 RMK A01 T00111040  RH  068%=      5-min Rain = 0
KAM2 080325Z 09006KT 01/M04 A3032 RMK A01 T00111039  RH  069%=      5-min Rain = 0
KAM2 080326Z 09006KT 01/M04 A3032 RMK A01 T00111039  RH  069%=      5-min Rain = 0
KAM2 080327Z 09006KT 01/M04 A3032 RMK A01 T00111040  RH  069%=      5-min Rain = 0
KAM2 080328Z 08006KT 01/M04 A3032 RMK A01 T00121040  RH  069%=      5-min Rain = 0
KAM2 080329Z 08007KT 01/M04 A3032 RMK A01 T00111040  RH  068%=      5-min Rain = 0
KAM2 080330Z 09006KT 01/M04 A3032 RMK A01 T00111040  RH  068%=      5-min Rain = 0
KAM2 080331Z 10007KT 01/M04 A3032 RMK A01 T00111039  RH  069%=      5-min Rain = 0
KAM2 080332Z 10007KT 01/M04 A3032 RMK A01 T00111039  RH  069%=      5-min Rain = 0
KAM2 080333Z 09009KT 01/M04 A3032 RMK A01 T00111039  RH  069%=      5-min Rain = 0
KAM2 080334Z 09008KT 01/M04 A3032 RMK A01 T00111041  RH  068%=      5-min Rain = 0
KAM2 080335Z 09008KT 01/M04 A3032 RMK A01 T00111041  RH  068%=      5-min Rain = 0
KAM2 080336Z 09007KT 01/M04 A3032 RMK A01 T00111041  RH  068%=      5-min Rain = 0
KAM2 080337Z 09008KT 01/M04 A3032 RMK A01 T00111041  RH  068%=      5-min Rain = 0
KAM2 080338Z 09006KT 01/M04 A3032 RMK A01 T00111041  RH  068%=      5-min Rain = 0
KAM2 080339Z 09006KT 01/M04 A3031 RMK A01 T00111040  RH  069%=      5-min Rain = 0
KAM2 080340Z 08007KT 01/M04 A3031 RMK A01 T00111040  RH  069%=      5-min Rain = 0
KAM2 080341Z 08008KT 01/M04 A3031 RMK A01 T00111041  RH  068%=      5-min Rain = 0
KAM2 080342Z 08009KT 01/M04 A3031 RMK A01 T00111043  RH  067%=      5-min Rain = 0
KAM2 080343Z 08006KT 01/M04 A3031 RMK A01 T00101044  RH  067%=      5-min Rain = 0
KAM2 080344Z 09007KT 01/M04 A3032 RMK A01 T00101043  RH  068%=      5-min Rain = 0
KAM2 080345Z 09006KT 01/M04 A3032 RMK A01 T00101041  RH  068%=      5-min Rain = 0
KAM2 080346Z 08007KT 01/M04 A3031 RMK A01 T00101041  RH  069%=      5-min Rain = 0
KAM2 080347Z 09008KT 01/M04 A3031 RMK A01 T00101041  RH  069%=      5-min Rain = 0
KAM2 080348Z 08006KT 01/M04 A3031 RMK A01 T00101042  RH  068%=      5-min Rain = 0
KAM2 080349Z 08007KT 01/M04 A3031 RMK A01 T00101042  RH  068%=      5-min Rain = 0
KAM2 080350Z 07006KT 01/M04 A3031 RMK A01 T00101043  RH  068%=      5-min Rain = 0
KAM2 080351Z 07007KT 01/M04 A3031 RMK A01 T00091043  RH  068%=      5-min Rain = 0
KAM2 080352Z 08008KT 01/M04 A3031 RMK A01 T00091043  RH  068%=      5-min Rain = 0
KAM2 080353Z 08008KT 01/M04 A3031 RMK A01 T00091044  RH  068%=      5-min Rain = 0
KAM2 080354Z 08009KT 01/M04 A3031 RMK A01 T00091044  RH  068%=      5-min Rain = 0
KAM2 080355Z 08007KT 01/M04 A3031 RMK A01 T00091043  RH  068%=      5-min Rain = 0
KAM2 080356Z 08007KT 01/M04 A3031 RMK A01 T00091043  RH  068%=      5-min Rain = 0
KAM2 080357Z 07007KT 01/M04 A3031 RMK A01 T00091043  RH  068%=      5-min Rain = 0
KAM2 080358Z 08007KT 01/M04 A3031 RMK A01 T00091043  RH  068%=      5-min Rain = 0
KAM2 080359Z 08008KT 01/M04 A3031 RMK A01 T00091044  RH  068%=      5-min Rain = 0
KAM2 080400Z 08007KT 01/M04 A3031 RMK A01 T00091044  RH  068%=      5-min Rain = 0
KAM2 080401Z 08007KT 01/M04 A303 RMK A01 T00091043  RH  068%=      5-min Rain = 0
KAM2 080402Z 08008KT 01/M04 A303 RMK A01 T00081043  RH  068%=      5-min Rain = 0
KAM2 080403Z 08008KT 01/M04 A303 RMK A01 T00091043  RH  069%=      5-min Rain = 0
KAM2 080404Z 08005KT 01/M04 A303 RMK A01 T00091042  RH  069%=      5-min Rain = 0
KAM2 080405Z 07007KT 01/M04 A303 RMK A01 T00081043  RH  069%=      5-min Rain = 0
KAM2 080406Z 08007KT 01/M04 A303 RMK A01 T00081043  RH  068%=      5-min Rain = 0
KAM2 080407Z 07006KT 01/M04 A303 RMK A01 T00081044  RH  068%=      5-min Rain = 0
KAM2 080408Z 08007KT 01/M04 A303 RMK A01 T00081043  RH  069%=      5-min Rain = 0
KAM2 080409Z 08005KT 01/M04 A303 RMK A01 T00081043  RH  069%=      5-min Rain = 0
KAM2 080410Z 08007KT 01/M04 A303 RMK A01 T00081043  RH  069%=      5-min Rain = 0
KAM2 080411Z 09008KT 01/M04 A303 RMK A01 T00081043  RH  069%=      5-min Rain = 0
KAM2 080412Z 08009KT 01/M04 A303 RMK A01 T00081043  RH  069%=      5-min Rain = 0
KAM2 080413Z 09009KT 01/M04 A303 RMK A01 T00081044  RH  068%=      5-min Rain = 0
KAM2 080414Z 08007KT 01/M05 A303 RMK A01 T00081045  RH  068%=      5-min Rain = 0
KAM2 080415Z 08009KT 01/M05 A303 RMK A01 T00081045  RH  068%=      5-min Rain = 0
KAM2 080416Z 09010KT 01/M05 A303 RMK A01 T00081046  RH  067%=      5-min Rain = 0
KAM2 080417Z 08009KT 01/M05 A303 RMK A01 T00071047  RH  067%=      5-min Rain = 0
KAM2 080418Z 08008KT 01/M05 A303 RMK A01 T00071047  RH  067%=      5-min Rain = 0
KAM2 080419Z 08008KT 01/M05 A3031 RMK A01 T00071047  RH  067%=      5-min Rain = 0
KAM2 080420Z 09007KT 01/M05 A3031 RMK A01 T00071047  RH  067%=      5-min Rain = 0
KAM2 080421Z 08008KT 01/M05 A3031 RMK A01 T00071047  RH  067%=      5-min Rain = 0
KAM2 080422Z 08009KT 01/M05 A3031 RMK A01 T00071047  RH  067%=      5-min Rain = 0
KAM2 080423Z 09008KT 01/M05 A3031 RMK A01 T00071047  RH  067%=      5-min Rain = 0
KAM2 080424Z 09006KT 01/M05 A3031 RMK A01 T00071046  RH  068%=      5-min Rain = 0
KAM2 080425Z 09007KT 01/M05 A3031 RMK A01 T00071046  RH  068%=      5-min Rain = 0
KAM2 080426Z 08009KT 01/M05 A3032 RMK A01 T00071046  RH  068%=      5-min Rain = 0
KAM2 080427Z 08009KT 01/M05 A3032 RMK A01 T00071046  RH  068%=      5-min Rain = 0
KAM2 080428Z 08008KT 01/M05 A3032 RMK A01 T00071046  RH  068%=      5-min Rain = 0
KAM2 080429Z 08007KT 01/M05 A3031 RMK A01 T00071046  RH  068%=      5-min Rain = 0
KAM2 080430Z 08006KT 01/M05 A3031 RMK A01 T00061045  RH  068%=      5-min Rain = 0
KAM2 080431Z 07005KT 01/M04 A3031 RMK A01 T00071044  RH  069%=      5-min Rain = 0
KAM2 080432Z 08006KT 01/M04 A3031 RMK A01 T00071044  RH  069%=      5-min Rain = 0
KAM2 080433Z 08007KT 01/M04 A3031 RMK A01 T00071044  RH  069%=      5-min Rain = 0
KAM2 080434Z 08006KT 01/M04 A3031 RMK A01 T00071044  RH  069%=      5-min Rain = 0
KAM2 080435Z 08005KT 01/M04 A3031 RMK A01 T00061044  RH  069%=      5-min Rain = 0
KAM2 080436Z 09005KT 01/M04 A3031 RMK A01 T00071042  RH  070%=      5-min Rain = 0
KAM2 080437Z 09007KT 01/M04 A3031 RMK A01 T00061042  RH  070%=      5-min Rain = 0
KAM2 080438Z 10007KT 01/M04 A3031 RMK A01 T00061041  RH  070%=      5-min Rain = 0
KAM2 080439Z 09006KT 01/M04 A3031 RMK A01 T00071042  RH  070%=      5-min Rain = 0
KAM2 080440Z 08006KT 01/M04 A3031 RMK A01 T00071042  RH  070%=      5-min Rain = 0
KAM2 080441Z 09007KT 01/M04 A3031 RMK A01 T00071042  RH  070%=      5-min Rain = 0
KAM2 080442Z 08008KT 01/M04 A3031 RMK A01 T00061043  RH  070%=      5-min Rain = 0
KAM2 080443Z 07006KT 01/M04 A3031 RMK A01 T00061044  RH  069%=      5-min Rain = 0
KAM2 080444Z 07007KT 01/M04 A3031 RMK A01 T00061043  RH  070%=      5-min Rain = 0
KAM2 080445Z 07007KT 01/M04 A3031 RMK A01 T00061043  RH  070%=      5-min Rain = 0
KAM2 080446Z 07007KT 01/M04 A3031 RMK A01 T00061043  RH  070%=      5-min Rain = 0
KAM2 080447Z 07007KT 01/M04 A3031 RMK A01 T00051044  RH  070%=      5-min Rain = 0
KAM2 080448Z 07006KT 01/M04 A3031 RMK A01 T00051044  RH  070%=      5-min Rain = 0
KAM2 080449Z 07006KT 01/M04 A3031 RMK A01 T00051043  RH  070%=      5-min Rain = 0
KAM2 080450Z 08009KT 01/M04 A3031 RMK A01 T00051043  RH  070%=      5-min Rain = 0
KAM2 080451Z 08009KT 00/M04 A3031 RMK A01 T00041044  RH  070%=      5-min Rain = 0
KAM2 080452Z 08009KT 00/M04 A3031 RMK A01 T00041044  RH  070%=      5-min Rain = 0
KAM2 080453Z 08008KT 00/M04 A3031 RMK A01 T00041044  RH  071%=      5-min Rain = 0
KAM2 080454Z 08008KT 00/M04 A3031 RMK A01 T00031043  RH  071%=      5-min Rain = 0
KAM2 080455Z 08008KT 00/M04 A3031 RMK A01 T00031043  RH  071%=      5-min Rain = 0
KAM2 080456Z 08008KT 00/M04 A3031 RMK A01 T00031043  RH  071%=      5-min Rain = 0
KAM2 080457Z 08008KT 00/M04 A3031 RMK A01 T00031043  RH  071%=      5-min Rain = 0
KAM2 080458Z 08007KT 00/M04 A3031 RMK A01 T00021043  RH  072%=      5-min Rain = 0
KAM2 080459Z 08008KT 00/M04 A3031 RMK A01 T00021043  RH  072%=      5-min Rain = 0
KAM2 080500Z 08008KT 00/M04 A3031 RMK A01 T00021043  RH  072%=      5-min Rain = 0
KAM2 080501Z 08009KT 00/M04 A3031 RMK A01 T00021043  RH  072%=      5-min Rain = 0
KAM2 080502Z 08008KT 00/M04 A3031 RMK A01 T00011043  RH  072%=      5-min Rain = 0
KAM2 080503Z 08007KT 00/M04 A3031 RMK A01 T00021043  RH  072%=      5-min Rain = 0
KAM2 080504Z 08007KT 00/M04 A3031 RMK A01 T00021043  RH  072%=      5-min Rain = 0
KAM2 080505Z 08008KT 00/M04 A3031 RMK A01 T00021043  RH  072%=      5-min Rain = 0
KAM2 080506Z 07006KT 00/M04 A3031 RMK A01 T00021043  RH  072%=      5-min Rain = 0
KAM2 080507Z 07007KT 00/M04 A3031 RMK A01 T00021043  RH  072%=      5-min Rain = 0
KAM2 080508Z 08006KT 00/M04 A3031 RMK A01 T00021043  RH  072%=      5-min Rain = 0
KAM2 080509Z 08006KT 00/M04 A3032 RMK A01 T00021043  RH  072%=      5-min Rain = 0
KAM2 080510Z 08005KT 00/M04 A3032 RMK A01 T00021042  RH  072%=      5-min Rain = 0
KAM2 080511Z 08006KT 00/M04 A3032 RMK A01 T00021043  RH  072%=      5-min Rain = 0
KAM2 080512Z 07006KT 00/M04 A3032 RMK A01 T00021043  RH  072%=      5-min Rain = 0
KAM2 080513Z 06005KT 00/M04 A3032 RMK A01 T00021043  RH  072%=      5-min Rain = 0
KAM2 080514Z 06008KT 00/M04 A3032 RMK A01 T00021042  RH  072%=      5-min Rain = 0
KAM2 080515Z 07009KT 00/M04 A3032 RMK A01 T00011042  RH  073%=      5-min Rain = 0
KAM2 080516Z 07008KT 00/M04 A3032 RMK A01 T00011042  RH  073%=      5-min Rain = 0
KAM2 080517Z 07008KT 00/M04 A3032 RMK A01 T00011042  RH  073%=      5-min Rain = 0
KAM2 080518Z 06006KT 00/M04 A3032 RMK A01 T00011042  RH  073%=      5-min Rain = 0
KAM2 080519Z 06006KT 00/04 A3032 RMK A01 T00000-42  RH  073%=      5-min Rain = 0
KAM2 080520Z 06005KT 00/04 A3032 RMK A01 T00000-41  RH  073%=      5-min Rain = 0
KAM2 080521Z 06005KT 00/04 A3032 RMK A01 T00000-42  RH  073%=      5-min Rain = 0
KAM2 080522Z 07005KT 00/04 A3032 RMK A01 T00000-41  RH  074%=      5-min Rain = 0
KAM2 080523Z 06004KT 00/04 A3032 RMK A01 T00000-41  RH  074%=      5-min Rain = 0
KAM2 080524Z 05004KT 00/04 A3032 RMK A01 T00000-41  RH  074%=      5-min Rain = 0
KAM2 080525Z 05005KT 00/04 A3032 RMK A01 T00000-41  RH  074%=      5-min Rain = 0
KAM2 080526Z 05006KT 00/04 A3032 RMK A01 T00000-41  RH  074%=      5-min Rain = 0
KAM2 080527Z 06006KT 00/04 A3032 RMK A01 T00000-41  RH  074%=      5-min Rain = 0
KAM2 080528Z 06007KT 00/04 A3032 RMK A01 T00000-41  RH  074%=      5-min Rain = 0
KAM2 080529Z 06008KT 00/04 A3032 RMK A01 T00-00-42  RH  073%=      5-min Rain = 0
KAM2 080530Z 06007KT 00/04 A3032 RMK A01 T00-00-42  RH  073%=      5-min Rain = 0
KAM2 080531Z 06006KT 00/04 A3032 RMK A01 T00-00-42  RH  073%=      5-min Rain = 0
KAM2 080532Z 06005KT M00/M04 A3032 RMK A01 T10011042  RH  074%=      5-min Rain = 0
KAM2 080533Z 05005KT M00/M04 A3032 RMK A01 T10011042  RH  074%=      5-min Rain = 0
KAM2 080534Z 05004KT M00/M04 A3032 RMK A01 T10011042  RH  074%=      5-min Rain = 0
KAM2 080535Z 06006KT M00/M04 A3032 RMK A01 T10011042  RH  074%=      5-min Rain = 0
KAM2 080536Z 05005KT 00/04 A3032 RMK A01 T00-00-42  RH  074%=      5-min Rain = 0
KAM2 080537Z 05006KT 00/04 A3032 RMK A01 T00-00-42  RH  074%=      5-min Rain = 0
KAM2 080538Z 05006KT 00/04 A3032 RMK A01 T00-00-42  RH  074%=      5-min Rain = 0
KAM2 080539Z 05006KT 00/04 A3032 RMK A01 T00-00-42  RH  073%=      5-min Rain = 0
KAM2 080540Z 05006KT 00/04 A3032 RMK A01 T00-00-42  RH  073%=      5-min Rain = 0
KAM2 080541Z 05006KT M00/M04 A3032 RMK A01 T10011042  RH  074%=      5-min Rain = 0
KAM2 080542Z 05006KT M00/M04 A3032 RMK A01 T10011042  RH  074%=      5-min Rain = 0
KAM2 080543Z 05006KT M00/M04 A3032 RMK A01 T10011042  RH  074%=      5-min Rain = 0
KAM2 080544Z 05006KT M00/M04 A3032 RMK A01 T10011042  RH  074%=      5-min Rain = 0
KAM2 080545Z 05007KT M00/M04 A3032 RMK A01 T10011042  RH  074%=      5-min Rain = 0
KAM2 080546Z 05006KT M00/M04 A3032 RMK A01 T10011041  RH  074%=      5-min Rain = 0
KAM2 080547Z 05007KT M00/M04 A3032 RMK A01 T10011041  RH  074%=      5-min Rain = 0
KAM2 080548Z 05007KT M00/M04 A3032 RMK A01 T10011041  RH  074%=      5-min Rain = 0
KAM2 080549Z 06006KT 00/04 A3032 RMK A01 T00-00-41  RH  074%=      5-min Rain = 0
KAM2 080550Z 05006KT M00/M04 A3032 RMK A01 T10011041  RH  074%=      5-min Rain = 0
KAM2 080551Z 05005KT M00/M04 A3032 RMK A01 T10011041  RH  074%=      5-min Rain = 0
KAM2 080552Z 06005KT M00/M04 A3032 RMK A01 T10011041  RH  074%=      5-min Rain = 0
KAM2 080553Z 05005KT M00/M04 A3032 RMK A01 T10011040  RH  075%=      5-min Rain = 0
KAM2 080554Z 05006KT M00/M04 A3032 RMK A01 T10011041  RH  074%=      5-min Rain = 0
KAM2 080555Z 04006KT M00/M04 A3032 RMK A01 T10011041  RH  074%=      5-min Rain = 0
KAM2 080556Z 04006KT M00/M04 A3032 RMK A01 T10011041  RH  075%=      5-min Rain = 0
KAM2 080557Z 04006KT M00/M04 A3032 RMK A01 T10011041  RH  075%=      5-min Rain = 0
KAM2 080558Z 04006KT M00/M04 A3032 RMK A01 T10011041  RH  075%=      5-min Rain = 0
KAM2 080559Z 04006KT M00/M04 A3032 RMK A01 T10021041  RH  075%=      5-min Rain = 0

Page generated in 0.0732 seconds.